Wetterdaten: aktuell Donnerstag, 02.07.2020 08:38
Datum Zeit Temp 2m Temp 5cm Feuchte 2m Luftdruck Regen Wind Richtung Richtung ET UV Solar Taupunkt Windchill Windben Empfang
02.07.2020 08:38 19,9 C 21,7 C 78 % 1011,2 hPa 0,0 l/m 9,7 km/h (2 Bft) W-SW 247 0,000 mm 2,1 UV-I 489 W/m 15,9 C 18,6 C 12,9 km/h (3 Bft) 95,65 %
02.07.2020 08:37 19,8 C 21,1 C 77 % 1011,2 hPa 0,0 l/m 8,0 km/h (2 Bft) SW 225 0,000 mm 2,1 UV-I 482 W/m 15,6 C 19,1 C 12,9 km/h (3 Bft) 100,00 %
02.07.2020 08:36 19,7 C 21,1 C 76 % 1011,2 hPa 0,0 l/m 12,9 km/h (3 Bft) SW 225 0,000 mm 2,1 UV-I 476 W/m 15,3 C 17,4 C 16,1 km/h (3 Bft) 95,65 %
02.07.2020 08:35 19,7 C 21,1 C 77 % 1011,2 hPa 0,0 l/m 16,1 km/h (3 Bft) W-SW 247 0,000 mm 2,0 UV-I 468 W/m 15,5 C 16,6 C 17,7 km/h (3 Bft) 95,65 %
02.07.2020 08:34 19,7 C 21,1 C 76 % 1011,2 hPa 0,0 l/m 11,3 km/h (2 Bft) W-SW 247 0,000 mm 2,0 UV-I 461 W/m 15,3 C 17,9 C 17,7 km/h (3 Bft) 100,00 %
02.07.2020 08:33 19,7 C 20,6 C 76 % 1011,2 hPa 0,0 l/m 14,5 km/h (3 Bft) W-SW 247 0,000 mm 2,0 UV-I 459 W/m 15,3 C 17,0 C 17,7 km/h (3 Bft) 91,30 %
02.07.2020 08:32 19,8 C 20,6 C 77 % 1011,2 hPa 0,0 l/m 12,9 km/h (3 Bft) W-SW 247 0,000 mm 1,9 UV-I 445 W/m 15,6 C 17,5 C 19,3 km/h (3 Bft) 95,65 %
02.07.2020 08:31 19,7 C 20,6 C 77 % 1011,2 hPa 0,0 l/m 8,0 km/h (2 Bft) W-SW 247 0,000 mm 1,9 UV-I 431 W/m 15,5 C 19,0 C 11,3 km/h (2 Bft) 95,65 %
02.07.2020 08:30 19,7 C 20,6 C 77 % 1011,2 hPa 0,0 l/m 11,3 km/h (2 Bft) W-SW 247 0,000 mm 1,9 UV-I 425 W/m 15,5 C 17,9 C 16,1 km/h (3 Bft) 91,30 %
02.07.2020 08:29 19,7 C 20,6 C 77 % 1011,2 hPa 0,0 l/m 8,0 km/h (2 Bft) W-SW 247 0,000 mm 1,9 UV-I 420 W/m 15,5 C 19,0 C 11,3 km/h (2 Bft) 95,65 %
02.07.2020 08:28 19,6 C 20,0 C 77 % 1011,2 hPa 0,0 l/m 6,4 km/h (2 Bft) W-SW 247 0,000 mm 1,8 UV-I 406 W/m 15,5 C 19,6 C 9,7 km/h (2 Bft) 100,00 %
02.07.2020 08:27 19,7 C 20,0 C 76 % 1011,2 hPa 0,0 l/m 8,0 km/h (2 Bft) W-SW 247 0,000 mm 1,8 UV-I 399 W/m 15,3 C 19,0 C 11,3 km/h (2 Bft) 91,30 %
02.07.2020 08:26 19,6 C 20,0 C 76 % 1011,2 hPa 0,0 l/m 12,9 km/h (3 Bft) W-SW 247 0,000 mm 1,7 UV-I 387 W/m 15,2 C 17,3 C 16,1 km/h (3 Bft) 95,65 %
02.07.2020 08:25 19,6 C 20,0 C 77 % 1011,3 hPa 0,0 l/m 8,0 km/h (2 Bft) W 270 0,000 mm 1,7 UV-I 383 W/m 15,5 C 18,9 C 14,5 km/h (3 Bft) 95,65 %
02.07.2020 08:24 19,6 C 20,0 C 77 % 1011,2 hPa 0,0 l/m 9,7 km/h (2 Bft) W-SW 247 0,000 mm 1,7 UV-I 374 W/m 15,5 C 18,3 C 12,9 km/h (3 Bft) 95,65 %
02.07.2020 08:23 19,4 C 19,4 C 77 % 1011,3 hPa 0,0 l/m 9,7 km/h (2 Bft) SW 225 0,000 mm 1,7 UV-I 359 W/m 15,3 C 18,1 C 16,1 km/h (3 Bft) 95,65 %
02.07.2020 08:22 19,4 C 19,4 C 78 % 1011,4 hPa 0,0 l/m 8,0 km/h (2 Bft) W-SW 247 0,000 mm 1,6 UV-I 360 W/m 15,5 C 18,7 C 12,9 km/h (3 Bft) 100,00 %
02.07.2020 08:21 19,3 C 19,4 C 80 % 1011,3 hPa 0,0 l/m 8,0 km/h (2 Bft) W-SW 247 0,000 mm 1,7 UV-I 348 W/m 15,8 C 18,6 C 11,3 km/h (2 Bft) 95,65 %
02.07.2020 08:20 19,1 C 18,9 C 80 % 1011,3 hPa 0,0 l/m 6,4 km/h (2 Bft) W-SW 247 0,000 mm 1,6 UV-I 341 W/m 15,6 C 19,1 C 11,3 km/h (2 Bft) 95,65 %
02.07.2020 08:19 19,0 C 18,9 C 79 % 1011,3 hPa 0,0 l/m 6,4 km/h (2 Bft) W-SW 247 0,000 mm 1,6 UV-I 336 W/m 15,3 C 19,0 C 9,7 km/h (2 Bft) 95,65 %
02.07.2020 08:18 18,9 C 18,9 C 79 % 1011,2 hPa 0,0 l/m 8,0 km/h (2 Bft) SW 225 0,000 mm 1,6 UV-I 329 W/m 15,2 C 18,2 C 11,3 km/h (2 Bft) 91,30 %
02.07.2020 08:17 18,8 C 18,3 C 79 % 1011,3 hPa 0,0 l/m 12,9 km/h (3 Bft) W-SW 247 0,000 mm 1,6 UV-I 329 W/m 15,1 C 16,4 C 17,7 km/h (3 Bft) 91,30 %
02.07.2020 08:16 18,8 C 18,3 C 79 % 1011,3 hPa 0,0 l/m 11,3 km/h (2 Bft) W-SW 247 0,000 mm 1,5 UV-I 322 W/m 15,1 C 16,9 C 17,7 km/h (3 Bft) 91,30 %
02.07.2020 08:15 18,9 C 18,3 C 78 % 1011,3 hPa 0,0 l/m 12,9 km/h (3 Bft) SW 225 0,000 mm 1,5 UV-I 320 W/m 15,0 C 16,5 C 17,7 km/h (3 Bft) 100,00 %
02.07.2020 08:14 18,9 C 18,3 C 78 % 1011,4 hPa 0,0 l/m 12,9 km/h (3 Bft) W-SW 247 0,000 mm 1,5 UV-I 313 W/m 15,0 C 16,5 C 16,1 km/h (3 Bft) 91,30 %
02.07.2020 08:13 18,9 C 18,3 C 78 % 1011,2 hPa 0,0 l/m 14,5 km/h (3 Bft) W-SW 247 0,000 mm 1,5 UV-I 297 W/m 15,0 C 16,0 C 17,7 km/h (3 Bft) 95,65 %
02.07.2020 08:12 18,9 C 18,3 C 77 % 1011,3 hPa 0,0 l/m 14,5 km/h (3 Bft) W-SW 247 0,000 mm 1,4 UV-I 297 W/m 14,8 C 16,0 C 20,9 km/h (4 Bft) 95,65 %
02.07.2020 08:11 18,9 C 18,3 C 79 % 1011,3 hPa 0,0 l/m 11,3 km/h (2 Bft) SW 225 0,000 mm 1,4 UV-I 288 W/m 15,2 C 17,0 C 14,5 km/h (3 Bft) 95,65 %
02.07.2020 08:10 18,9 C 17,8 C 78 % 1011,3 hPa 0,0 l/m 8,0 km/h (2 Bft) S-SW 202 0,000 mm 1,3 UV-I 278 W/m 15,0 C 18,2 C 14,5 km/h (3 Bft) 82,61 %
02.07.2020 08:09 18,9 C 17,8 C 79 % 1011,3 hPa 0,0 l/m 9,7 km/h (2 Bft) W-SW 247 0,000 mm 1,3 UV-I 258 W/m 15,2 C 17,5 C 14,5 km/h (3 Bft) 100,00 %
02.07.2020 08:08 18,9 C 17,8 C 78 % 1011,3 hPa 0,0 l/m 8,0 km/h (2 Bft) SW 225 0,000 mm 1,3 UV-I 230 W/m 15,0 C 18,2 C 11,3 km/h (2 Bft) 91,30 %
02.07.2020 08:07 18,9 C 17,8 C 79 % 1011,3 hPa 0,0 l/m 11,3 km/h (2 Bft) W-SW 247 0,000 mm 1,2 UV-I 230 W/m 15,2 C 17,0 C 17,7 km/h (3 Bft) 95,65 %
02.07.2020 08:06 18,9 C 17,8 C 79 % 1011,3 hPa 0,0 l/m 12,9 km/h (3 Bft) SW 225 0,000 mm 1,2 UV-I 234 W/m 15,2 C 16,5 C 17,7 km/h (3 Bft) 95,65 %
02.07.2020 08:05 18,9 C 17,8 C 79 % 1011,3 hPa 0,0 l/m 6,4 km/h (2 Bft) SW 225 0,000 mm 1,2 UV-I 216 W/m 15,2 C 18,9 C 11,3 km/h (2 Bft) 91,30 %
02.07.2020 08:04 18,9 C 17,8 C 79 % 1011,2 hPa 0,0 l/m 4,8 km/h (1 Bft) W-SW 247 0,000 mm 1,2 UV-I 218 W/m 15,2 C 18,9 C 6,4 km/h (2 Bft) 95,65 %
02.07.2020 08:03 18,9 C 17,8 C 78 % 1011,2 hPa 0,0 l/m 9,7 km/h (2 Bft) SW 225 0,000 mm 1,1 UV-I 202 W/m 15,0 C 17,5 C 14,5 km/h (3 Bft) 95,65 %
02.07.2020 08:02 18,9 C 17,8 C 78 % 1011,2 hPa 0,0 l/m 9,7 km/h (2 Bft) SW 225 0,000 mm 1,1 UV-I 199 W/m 15,0 C 17,5 C 16,1 km/h (3 Bft) 95,65 %
02.07.2020 08:01 18,9 C 17,8 C 79 % 1011,2 hPa 0,0 l/m 12,9 km/h (3 Bft) SW 225 0,000 mm 1,1 UV-I 202 W/m 15,2 C 16,5 C 19,3 km/h (3 Bft) 91,30 %
02.07.2020 08:00 18,9 C 17,8 C 78 % 1011,2 hPa 0,0 l/m 9,7 km/h (2 Bft) W-SW 247 0,076 mm 1,1 UV-I 199 W/m 15,0 C 17,5 C 12,9 km/h (3 Bft) 95,65 %
02.07.2020 07:59 19,0 C 17,8 C 78 % 1011,2 hPa 0,0 l/m 9,7 km/h (2 Bft) W-SW 247 0,000 mm 1,1 UV-I 229 W/m 15,1 C 17,6 C 12,9 km/h (3 Bft) 91,30 %
02.07.2020 07:58 19,0 C 17,8 C 79 % 1011,2 hPa 0,0 l/m 9,7 km/h (2 Bft) W 270 0,000 mm 1,1 UV-I 216 W/m 15,3 C 17,6 C 16,1 km/h (3 Bft) 95,65 %
02.07.2020 07:57 18,9 C 17,8 C 79 % 1011,1 hPa 0,0 l/m 12,9 km/h (3 Bft) W-SW 247 0,000 mm 1,1 UV-I 213 W/m 15,2 C 16,5 C 17,7 km/h (3 Bft) 95,65 %
02.07.2020 07:56 18,9 C 17,8 C 78 % 1011,2 hPa 0,0 l/m 11,3 km/h (2 Bft) SW 225 0,000 mm 1,1 UV-I 239 W/m 15,0 C 17,0 C 19,3 km/h (3 Bft) 95,65 %
02.07.2020 07:55 18,9 C 17,8 C 78 % 1011,2 hPa 0,0 l/m 12,9 km/h (3 Bft) SW 225 0,000 mm 1,1 UV-I 241 W/m 15,0 C 16,5 C 20,9 km/h (4 Bft) 91,30 %
02.07.2020 07:54 18,9 C 17,8 C 78 % 1011,1 hPa 0,0 l/m 9,7 km/h (2 Bft) W-SW 247 0,000 mm 1,1 UV-I 232 W/m 15,0 C 17,5 C 17,7 km/h (3 Bft) 95,65 %
02.07.2020 07:53 18,9 C 17,8 C 78 % 1011,1 hPa 0,0 l/m 9,7 km/h (2 Bft) SW 225 0,000 mm 1,1 UV-I 269 W/m 15,0 C 17,5 C 16,1 km/h (3 Bft) 95,65 %
02.07.2020 07:52 18,9 C 17,8 C 79 % 1011,2 hPa 0,0 l/m 8,0 km/h (2 Bft) W-SW 247 0,000 mm 1,0 UV-I 183 W/m 15,2 C 18,2 C 14,5 km/h (3 Bft) 91,30 %
02.07.2020 07:51 18,9 C 17,8 C 78 % 1011,1 hPa 0,0 l/m 11,3 km/h (2 Bft) SW 225 0,000 mm 1,1 UV-I 130 W/m 15,0 C 17,0 C 17,7 km/h (3 Bft) 100,00 %
02.07.2020 07:50 18,9 C 17,8 C 78 % 1011,2 hPa 0,0 l/m 11,3 km/h (2 Bft) SW 225 0,000 mm 0,9 UV-I 130 W/m 15,0 C 17,0 C 19,3 km/h (3 Bft) 91,30 %
02.07.2020 07:49 18,9 C 17,8 C 78 % 1011,1 hPa 0,0 l/m 8,0 km/h (2 Bft) W-SW 247 0,000 mm 0,9 UV-I 84 W/m 15,0 C 18,2 C 11,3 km/h (2 Bft) 95,65 %
02.07.2020 07:48 18,8 C 17,2 C 78 % 1011,1 hPa 0,0 l/m 9,7 km/h (2 Bft) W-SW 247 0,000 mm 0,8 UV-I 113 W/m 14,9 C 17,4 C 14,5 km/h (3 Bft) 95,65 %
02.07.2020 07:47 18,8 C 17,2 C 78 % 1011,1 hPa 0,0 l/m 8,0 km/h (2 Bft) W-SW 247 0,000 mm 0,9 UV-I 83 W/m 14,9 C 18,1 C 11,3 km/h (2 Bft) 95,65 %
02.07.2020 07:46 18,8 C 17,2 C 79 % 1011,1 hPa 0,0 l/m 11,3 km/h (2 Bft) W-SW 247 0,000 mm 0,8 UV-I 81 W/m 15,1 C 16,9 C 14,5 km/h (3 Bft) 82,61 %
02.07.2020 07:45 18,7 C 17,2 C 79 % 1011,1 hPa 0,0 l/m 8,0 km/h (2 Bft) SW 225 0,000 mm 0,8 UV-I 79 W/m 15,0 C 18,0 C 12,9 km/h (3 Bft) 95,65 %
02.07.2020 07:44 18,7 C 17,2 C 78 % 1011,2 hPa 0,0 l/m 9,7 km/h (2 Bft) W-SW 247 0,000 mm 0,8 UV-I 81 W/m 14,8 C 17,3 C 14,5 km/h (3 Bft) 95,65 %
02.07.2020 07:43 18,7 C 17,2 C 78 % 1011,2 hPa 0,0 l/m 9,7 km/h (2 Bft) W-SW 247 0,000 mm 0,8 UV-I 91 W/m 14,8 C 17,3 C 16,1 km/h (3 Bft) 91,30 %
02.07.2020 07:42 18,6 C 17,2 C 78 % 1011,1 hPa 0,0 l/m 6,4 km/h (2 Bft) W-SW 247 0,000 mm 0,8 UV-I 83 W/m 14,7 C 18,6 C 12,9 km/h (3 Bft) 100,00 %
02.07.2020 07:41 18,6 C 17,2 C 78 % 1011,2 hPa 0,0 l/m 12,9 km/h (3 Bft) W-SW 247 0,000 mm 0,7 UV-I 74 W/m 14,7 C 16,1 C 16,1 km/h (3 Bft) 91,30 %
02.07.2020 07:40 18,6 C 17,2 C 78 % 1011,2 hPa 0,0 l/m 12,9 km/h (3 Bft) W-SW 247 0,000 mm 0,7 UV-I 76 W/m 14,7 C 16,1 C 16,1 km/h (3 Bft) 95,65 %
02.07.2020 07:39 18,6 C 17,2 C 77 % 1011,2 hPa 0,0 l/m 8,0 km/h (2 Bft) W-SW 247 0,000 mm 0,7 UV-I 69 W/m 14,5 C 17,9 C 14,5 km/h (3 Bft) 100,00 %
02.07.2020 07:38 18,6 C 17,2 C 78 % 1011,1 hPa 0,0 l/m 6,4 km/h (2 Bft) W-SW 247 0,000 mm 0,7 UV-I 70 W/m 14,7 C 18,6 C 12,9 km/h (3 Bft) 95,65 %
02.07.2020 07:37 18,6 C 17,2 C 77 % 1011,2 hPa 0,0 l/m 6,4 km/h (2 Bft) W-SW 247 0,000 mm 0,7 UV-I 65 W/m 14,5 C 18,6 C 9,7 km/h (2 Bft) 86,96 %
02.07.2020 07:36 18,6 C 17,2 C 78 % 1011,1 hPa 0,0 l/m 9,7 km/h (2 Bft) W 270 0,000 mm 0,7 UV-I 62 W/m 14,7 C 17,2 C 14,5 km/h (3 Bft) 95,65 %
02.07.2020 07:35 18,6 C 17,2 C 78 % 1011,2 hPa 0,0 l/m 12,9 km/h (3 Bft) W-SW 247 0,000 mm 0,6 UV-I 65 W/m 14,7 C 16,1 C 19,3 km/h (3 Bft) 91,30 %
02.07.2020 07:34 18,6 C 17,2 C 78 % 1011,1 hPa 0,0 l/m 9,7 km/h (2 Bft) W-SW 247 0,000 mm 0,6 UV-I 60 W/m 14,7 C 17,2 C 12,9 km/h (3 Bft) 95,65 %
02.07.2020 07:33 18,5 C 17,2 C 78 % 1011,0 hPa 0,0 l/m 8,0 km/h (2 Bft) W-SW 247 0,000 mm 0,6 UV-I 58 W/m 14,6 C 17,8 C 11,3 km/h (2 Bft) 95,65 %
02.07.2020 07:32 18,5 C 17,2 C 78 % 1011,0 hPa 0,0 l/m 8,0 km/h (2 Bft) W 270 0,000 mm 0,6 UV-I 62 W/m 14,6 C 17,8 C 11,3 km/h (2 Bft) 95,65 %
02.07.2020 07:31 18,4 C 17,2 C 78 % 1011,0 hPa 0,0 l/m 9,7 km/h (2 Bft) W-SW 247 0,000 mm 0,6 UV-I 58 W/m 14,5 C 17,0 C 14,5 km/h (3 Bft) 91,30 %
02.07.2020 07:30 18,4 C 17,2 C 79 % 1011,0 hPa 0,0 l/m 9,7 km/h (2 Bft) W-SW 247 0,000 mm 0,6 UV-I 58 W/m 14,7 C 17,0 C 16,1 km/h (3 Bft) 100,00 %
02.07.2020 07:29 18,4 C 17,2 C 78 % 1011,0 hPa 0,0 l/m 11,3 km/h (2 Bft) W-SW 247 0,000 mm 0,6 UV-I 60 W/m 14,5 C 16,4 C 14,5 km/h (3 Bft) 91,30 %
02.07.2020 07:28 18,4 C 17,2 C 78 % 1011,0 hPa 0,0 l/m 11,3 km/h (2 Bft) W-SW 247 0,000 mm 0,6 UV-I 56 W/m 14,5 C 16,4 C 16,1 km/h (3 Bft) 91,30 %
02.07.2020 07:27 18,4 C 17,2 C 78 % 1011,0 hPa 0,0 l/m 11,3 km/h (2 Bft) W-SW 247 0,000 mm 0,0 UV-I 54 W/m 14,5 C 16,4 C 16,1 km/h (3 Bft) 91,30 %
02.07.2020 07:26 18,3 C 16,7 C 78 % 1011,0 hPa 0,0 l/m 9,7 km/h (2 Bft) W-SW 247 0,000 mm 0,0 UV-I 54 W/m 14,4 C 16,9 C 12,9 km/h (3 Bft) 95,65 %
02.07.2020 07:25 18,3 C 16,7 C 78 % 1011,0 hPa 0,0 l/m 11,3 km/h (2 Bft) W-SW 247 0,000 mm 0,0 UV-I 53 W/m 14,4 C 16,3 C 16,1 km/h (3 Bft) 95,65 %
02.07.2020 07:24 18,4 C 16,7 C 78 % 1010,9 hPa 0,0 l/m 8,0 km/h (2 Bft) SW 225 0,000 mm 0,0 UV-I 53 W/m 14,5 C 17,7 C 12,9 km/h (3 Bft) 91,30 %
02.07.2020 07:23 18,3 C 16,7 C 77 % 1010,8 hPa 0,0 l/m 12,9 km/h (3 Bft) W-SW 247 0,000 mm 0,0 UV-I 51 W/m 14,2 C 15,8 C 16,1 km/h (3 Bft) 100,00 %
02.07.2020 07:22 18,3 C 16,7 C 77 % 1010,8 hPa 0,0 l/m 6,4 km/h (2 Bft) W 270 0,000 mm 0,0 UV-I 51 W/m 14,2 C 18,3 C 11,3 km/h (2 Bft) 91,30 %
02.07.2020 07:21 18,3 C 16,7 C 77 % 1010,8 hPa 0,0 l/m 8,0 km/h (2 Bft) W-SW 247 0,000 mm 0,0 UV-I 51 W/m 14,2 C 17,6 C 16,1 km/h (3 Bft) 95,65 %
02.07.2020 07:20 18,3 C 16,7 C 78 % 1010,9 hPa 0,0 l/m 9,7 km/h (2 Bft) W 270 0,000 mm 0,0 UV-I 49 W/m 14,4 C 16,9 C 14,5 km/h (3 Bft) 95,65 %
02.07.2020 07:19 18,3 C 16,7 C 78 % 1010,8 hPa 0,0 l/m 6,4 km/h (2 Bft) W-SW 247 0,000 mm 0,0 UV-I 49 W/m 14,4 C 18,3 C 11,3 km/h (2 Bft) 91,30 %
02.07.2020 07:18 18,3 C 16,7 C 78 % 1010,8 hPa 0,0 l/m 9,7 km/h (2 Bft) W 270 0,000 mm 0,0 UV-I 49 W/m 14,4 C 16,9 C 14,5 km/h (3 Bft) 91,30 %
02.07.2020 07:17 18,3 C 16,7 C 78 % 1010,8 hPa 0,0 l/m 6,4 km/h (2 Bft) W 270 0,000 mm 0,0 UV-I 49 W/m 14,4 C 18,3 C 12,9 km/h (3 Bft) 100,00 %
02.07.2020 07:16 18,2 C 16,7 C 78 % 1010,8 hPa 0,0 l/m 6,4 km/h (2 Bft) SW 225 0,000 mm 0,0 UV-I 47 W/m 14,3 C 18,2 C 11,3 km/h (2 Bft) 95,65 %
02.07.2020 07:15 18,2 C 16,7 C 78 % 1010,7 hPa 0,0 l/m 6,4 km/h (2 Bft) W-SW 247 0,000 mm 0,0 UV-I 46 W/m 14,3 C 18,2 C 11,3 km/h (2 Bft) 95,65 %
02.07.2020 07:14 18,3 C 16,7 C 78 % 1010,7 hPa 0,0 l/m 9,7 km/h (2 Bft) W-SW 247 0,000 mm 0,0 UV-I 44 W/m 14,4 C 16,9 C 14,5 km/h (3 Bft) 100,00 %
02.07.2020 07:13 18,2 C 16,7 C 78 % 1010,7 hPa 0,0 l/m 8,0 km/h (2 Bft) W 270 0,000 mm 0,0 UV-I 44 W/m 14,3 C 17,5 C 12,9 km/h (3 Bft) 95,65 %
02.07.2020 07:12 18,2 C 16,7 C 78 % 1010,6 hPa 0,0 l/m 6,4 km/h (2 Bft) W-SW 247 0,000 mm 0,0 UV-I 44 W/m 14,3 C 18,2 C 8,0 km/h (2 Bft) 95,65 %
02.07.2020 07:11 18,2 C 16,7 C 78 % 1010,7 hPa 0,0 l/m 6,4 km/h (2 Bft) W-NW 292 0,000 mm 0,0 UV-I 44 W/m 14,3 C 18,2 C 11,3 km/h (2 Bft) 95,65 %
02.07.2020 07:10 18,2 C 16,7 C 77 % 1010,6 hPa 0,0 l/m 11,3 km/h (2 Bft) W-NW 292 0,000 mm 0,0 UV-I 44 W/m 14,1 C 16,2 C 14,5 km/h (3 Bft) 95,65 %
02.07.2020 07:09 18,2 C 16,7 C 77 % 1010,6 hPa 0,0 l/m 9,7 km/h (2 Bft) W-NW 292 0,000 mm 0,0 UV-I 44 W/m 14,1 C 16,8 C 16,1 km/h (3 Bft) 95,65 %
02.07.2020 07:08 18,2 C 16,7 C 78 % 1010,6 hPa 0,0 l/m 6,4 km/h (2 Bft) W-NW 292 0,000 mm 0,0 UV-I 44 W/m 14,3 C 18,2 C 11,3 km/h (2 Bft) 100,00 %
02.07.2020 07:07 18,2 C 16,7 C 78 % 1010,6 hPa 0,0 l/m 3,2 km/h (1 Bft) W-NW 292 0,000 mm 0,0 UV-I 42 W/m 14,3 C 18,2 C 6,4 km/h (2 Bft) 95,65 %
02.07.2020 07:06 18,2 C 16,7 C 77 % 1010,6 hPa 0,0 l/m 6,4 km/h (2 Bft) W 270 0,000 mm 0,0 UV-I 42 W/m 14,1 C 18,2 C 9,7 km/h (2 Bft) 95,65 %
02.07.2020 07:05 18,2 C 16,7 C 78 % 1010,5 hPa 0,0 l/m 8,0 km/h (2 Bft) W 270 0,000 mm 0,0 UV-I 42 W/m 14,3 C 17,5 C 11,3 km/h (2 Bft) 100,00 %
02.07.2020 07:04 18,2 C 16,7 C 78 % 1010,5 hPa 0,0 l/m 8,0 km/h (2 Bft) W-NW 292 0,000 mm 0,0 UV-I 42 W/m 14,3 C 17,5 C 14,5 km/h (3 Bft) 95,65 %
02.07.2020 07:03 18,1 C 16,7 C 78 % 1010,6 hPa 0,0 l/m 8,0 km/h (2 Bft) W-NW 292 0,000 mm 0,0 UV-I 40 W/m 14,2 C 17,4 C 9,7 km/h (2 Bft) 91,30 %
02.07.2020 07:02 18,1 C 16,7 C 78 % 1010,6 hPa 0,0 l/m 6,4 km/h (2 Bft) W 270 0,000 mm 0,0 UV-I 40 W/m 14,2 C 18,1 C 12,9 km/h (3 Bft) 95,65 %
02.07.2020 07:01 18,1 C 16,1 C 78 % 1010,5 hPa 0,0 l/m 6,4 km/h (2 Bft) W-NW 292 0,000 mm 0,0 UV-I 40 W/m 14,2 C 18,1 C 11,3 km/h (2 Bft) 95,65 %
02.07.2020 07:00 18,1 C 16,1 C 78 % 1010,5 hPa 0,0 l/m 4,8 km/h (1 Bft) W-NW 292 0,051 mm 0,0 UV-I 40 W/m 14,2 C 18,1 C 8,0 km/h (2 Bft) 95,65 %
02.07.2020 06:59 18,0 C 16,1 C 78 % 1010,4 hPa 0,0 l/m 8,0 km/h (2 Bft) W-SW 247 0,000 mm 0,0 UV-I 39 W/m 14,1 C 17,3 C 12,9 km/h (3 Bft) 100,00 %
02.07.2020 06:58 17,9 C 16,1 C 78 % 1010,4 hPa 0,0 l/m 6,4 km/h (2 Bft) W-NW 292 0,000 mm 0,0 UV-I 39 W/m 14,0 C 17,9 C 11,3 km/h (2 Bft) 91,30 %
02.07.2020 06:57 17,9 C 16,1 C 78 % 1010,4 hPa 0,0 l/m 6,4 km/h (2 Bft) W-NW 292 0,000 mm 0,0 UV-I 39 W/m 14,0 C 17,9 C 12,9 km/h (3 Bft) 95,65 %
02.07.2020 06:56 17,9 C 16,1 C 78 % 1010,4 hPa 0,0 l/m 4,8 km/h (1 Bft) W 270 0,000 mm 0,0 UV-I 37 W/m 14,0 C 17,9 C 9,7 km/h (2 Bft) 100,00 %
02.07.2020 06:55 17,8 C 16,1 C 78 % 1010,4 hPa 0,0 l/m 6,4 km/h (2 Bft) W-NW 292 0,000 mm 0,0 UV-I 37 W/m 13,9 C 17,8 C 11,3 km/h (2 Bft) 95,65 %
02.07.2020 06:54 17,8 C 16,1 C 78 % 1010,2 hPa 0,0 l/m 8,0 km/h (2 Bft) W-SW 247 0,000 mm 0,0 UV-I 37 W/m 13,9 C 17,0 C 16,1 km/h (3 Bft) 95,65 %
02.07.2020 06:53 17,7 C 16,1 C 79 % 1010,2 hPa 0,0 l/m 6,4 km/h (2 Bft) W-SW 247 0,000 mm 0,0 UV-I 46 W/m 14,0 C 17,7 C 11,3 km/h (2 Bft) 100,00 %
02.07.2020 06:52 17,7 C 16,1 C 79 % 1010,3 hPa 0,0 l/m 8,0 km/h (2 Bft) W-SW 247 0,000 mm 0,0 UV-I 51 W/m 14,0 C 16,9 C 11,3 km/h (2 Bft) 95,65 %
02.07.2020 06:51 17,7 C 16,1 C 79 % 1010,2 hPa 0,0 l/m 9,7 km/h (2 Bft) W 270 0,000 mm 0,0 UV-I 46 W/m 14,0 C 16,2 C 14,5 km/h (3 Bft) 91,30 %
02.07.2020 06:50 17,6 C 16,1 C 80 % 1010,2 hPa 0,0 l/m 8,0 km/h (2 Bft) W-SW 247 0,000 mm 0,0 UV-I 53 W/m 14,1 C 16,8 C 14,5 km/h (3 Bft) 100,00 %
02.07.2020 06:49 17,6 C 16,1 C 80 % 1010,2 hPa 0,0 l/m 8,0 km/h (2 Bft) W-SW 247 0,000 mm 0,0 UV-I 42 W/m 14,1 C 16,8 C 12,9 km/h (3 Bft) 91,30 %
02.07.2020 06:48 17,6 C 16,1 C 80 % 1010,1 hPa 0,0 l/m 8,0 km/h (2 Bft) W-SW 247 0,000 mm 0,0 UV-I 42 W/m 14,1 C 16,8 C 12,9 km/h (3 Bft) 95,65 %
02.07.2020 06:47 17,5 C 16,1 C 80 % 1010,2 hPa 0,0 l/m 11,3 km/h (2 Bft) W-SW 247 0,000 mm 0,0 UV-I 33 W/m 14,0 C 15,4 C 14,5 km/h (3 Bft) 95,65 %
02.07.2020 06:46 17,4 C 16,1 C 80 % 1010,1 hPa 0,0 l/m 8,0 km/h (2 Bft) W-SW 247 0,000 mm 0,0 UV-I 32 W/m 13,9 C 16,6 C 11,3 km/h (2 Bft) 91,30 %
02.07.2020 06:45 17,3 C 16,1 C 80 % 1010,1 hPa 0,0 l/m 9,7 km/h (2 Bft) W-SW 247 0,000 mm 0,0 UV-I 35 W/m 13,8 C 15,8 C 11,3 km/h (2 Bft) 95,65 %
02.07.2020 06:44 17,3 C 16,1 C 80 % 1010,1 hPa 0,0 l/m 11,3 km/h (2 Bft) W-SW 247 0,000 mm 0,0 UV-I 39 W/m 13,8 C 15,2 C 12,9 km/h (3 Bft) 100,00 %
02.07.2020 06:43 17,3 C 16,1 C 80 % 1010,1 hPa 0,0 l/m 11,3 km/h (2 Bft) W-SW 247 0,000 mm 0,0 UV-I 37 W/m 13,8 C 15,2 C 14,5 km/h (3 Bft) 91,30 %
02.07.2020 06:42 17,3 C 16,1 C 81 % 1010,0 hPa 0,0 l/m 9,7 km/h (2 Bft) W-SW 247 0,000 mm 0,0 UV-I 35 W/m 14,0 C 15,8 C 11,3 km/h (2 Bft) 91,30 %
02.07.2020 06:41 17,2 C 16,1 C 80 % 1010,0 hPa 0,0 l/m 9,7 km/h (2 Bft) SW 225 0,000 mm 0,0 UV-I 30 W/m 13,7 C 15,7 C 12,9 km/h (3 Bft) 100,00 %
02.07.2020 06:40 17,2 C 16,1 C 80 % 1010,0 hPa 0,0 l/m 9,7 km/h (2 Bft) SW 225 0,000 mm 0,0 UV-I 28 W/m 13,7 C 15,7 C 14,5 km/h (3 Bft) 95,65 %
02.07.2020 06:39 17,1 C 16,1 C 81 % 1010,0 hPa 0,0 l/m 8,0 km/h (2 Bft) W-SW 247 0,000 mm 0,0 UV-I 28 W/m 13,8 C 16,3 C 14,5 km/h (3 Bft) 95,65 %
02.07.2020 06:38 17,1 C 16,1 C 80 % 1010,0 hPa 0,0 l/m 11,3 km/h (2 Bft) W-SW 247 0,000 mm 0,0 UV-I 28 W/m 13,6 C 14,9 C 14,5 km/h (3 Bft) 95,65 %
02.07.2020 06:37 17,1 C 16,1 C 80 % 1010,0 hPa 0,0 l/m 11,3 km/h (2 Bft) W-SW 247 0,000 mm 0,0 UV-I 28 W/m 13,6 C 14,9 C 14,5 km/h (3 Bft) 100,00 %
02.07.2020 06:36 17,1 C 16,1 C 81 % 1010,0 hPa 0,0 l/m 11,3 km/h (2 Bft) W 270 0,000 mm 0,0 UV-I 28 W/m 13,8 C 14,9 C 16,1 km/h (3 Bft) 95,65 %
02.07.2020 06:35 17,0 C 16,1 C 81 % 1010,0 hPa 0,0 l/m 11,3 km/h (2 Bft) W-SW 247 0,000 mm 0,0 UV-I 28 W/m 13,7 C 14,8 C 16,1 km/h (3 Bft) 95,65 %
02.07.2020 06:34 17,0 C 16,1 C 81 % 1010,0 hPa 0,0 l/m 9,7 km/h (2 Bft) W-SW 247 0,000 mm 0,0 UV-I 26 W/m 13,7 C 15,4 C 16,1 km/h (3 Bft) 95,65 %
02.07.2020 06:33 17,0 C 16,1 C 81 % 1010,0 hPa 0,0 l/m 11,3 km/h (2 Bft) W-SW 247 0,000 mm 0,0 UV-I 26 W/m 13,7 C 14,8 C 16,1 km/h (3 Bft) 95,65 %
02.07.2020 06:32 17,0 C 15,6 C 81 % 1010,0 hPa 0,0 l/m 11,3 km/h (2 Bft) W-SW 247 0,000 mm 0,0 UV-I 26 W/m 13,7 C 14,8 C 16,1 km/h (3 Bft) 86,96 %
02.07.2020 06:31 17,0 C 15,6 C 80 % 1010,0 hPa 0,0 l/m 11,3 km/h (2 Bft) W-SW 247 0,000 mm 0,0 UV-I 30 W/m 13,5 C 14,8 C 14,5 km/h (3 Bft) 100,00 %
02.07.2020 06:30 17,0 C 15,6 C 80 % 1010,0 hPa 0,0 l/m 11,3 km/h (2 Bft) W-SW 247 0,000 mm 0,0 UV-I 26 W/m 13,5 C 14,8 C 14,5 km/h (3 Bft) 95,65 %
02.07.2020 06:29 17,0 C 15,6 C 80 % 1010,0 hPa 0,0 l/m 14,5 km/h (3 Bft) W-SW 247 0,000 mm 0,0 UV-I 26 W/m 13,5 C 13,8 C 19,3 km/h (3 Bft) 95,65 %
02.07.2020 06:28 16,9 C 15,6 C 81 % 1010,1 hPa 0,0 l/m 9,7 km/h (2 Bft) W-SW 247 0,000 mm 0,0 UV-I 25 W/m 13,6 C 15,3 C 14,5 km/h (3 Bft) 100,00 %
02.07.2020 06:27 16,9 C 15,6 C 81 % 1010,0 hPa 0,0 l/m 12,9 km/h (3 Bft) W-SW 247 0,000 mm 0,0 UV-I 26 W/m 13,6 C 14,2 C 17,7 km/h (3 Bft) 95,65 %
02.07.2020 06:26 16,9 C 15,6 C 81 % 1010,0 hPa 0,0 l/m 11,3 km/h (2 Bft) W-SW 247 0,000 mm 0,0 UV-I 26 W/m 13,6 C 14,7 C 12,9 km/h (3 Bft) 91,30 %
02.07.2020 06:25 16,8 C 15,6 C 81 % 1010,0 hPa 0,0 l/m 12,9 km/h (3 Bft) W-SW 247 0,000 mm 0,0 UV-I 25 W/m 13,5 C 14,0 C 19,3 km/h (3 Bft) 100,00 %
02.07.2020 06:24 16,8 C 15,6 C 81 % 1009,9 hPa 0,0 l/m 11,3 km/h (2 Bft) W-SW 247 0,000 mm 0,0 UV-I 25 W/m 13,5 C 14,6 C 16,1 km/h (3 Bft) 91,30 %
02.07.2020 06:23 16,7 C 15,6 C 81 % 1009,9 hPa 0,0 l/m 12,9 km/h (3 Bft) W-SW 247 0,000 mm 0,0 UV-I 25 W/m 13,4 C 13,9 C 17,7 km/h (3 Bft) 86,96 %
02.07.2020 06:22 16,7 C 15,6 C 81 % 1009,8 hPa 0,0 l/m 12,9 km/h (3 Bft) W-SW 247 0,000 mm 0,0 UV-I 23 W/m 13,4 C 13,9 C 16,1 km/h (3 Bft) 100,00 %
02.07.2020 06:21 16,7 C 15,6 C 81 % 1009,8 hPa 0,0 l/m 9,7 km/h (2 Bft) SW 225 0,000 mm 0,0 UV-I 23 W/m 13,4 C 15,1 C 12,9 km/h (3 Bft) 91,30 %
02.07.2020 06:20 16,7 C 15,6 C 81 % 1009,8 hPa 0,0 l/m 8,0 km/h (2 Bft) W-SW 247 0,000 mm 0,0 UV-I 23 W/m 13,4 C 15,9 C 11,3 km/h (2 Bft) 91,30 %
02.07.2020 06:19 16,7 C 15,6 C 81 % 1009,8 hPa 0,0 l/m 8,0 km/h (2 Bft) W-SW 247 0,000 mm 0,0 UV-I 23 W/m 13,4 C 15,9 C 9,7 km/h (2 Bft) 95,65 %
02.07.2020 06:18 16,7 C 15,6 C 81 % 1009,7 hPa 0,0 l/m 8,0 km/h (2 Bft) W-SW 247 0,000 mm 0,0 UV-I 23 W/m 13,4 C 15,9 C 12,9 km/h (3 Bft) 91,30 %
02.07.2020 06:17 16,7 C 15,6 C 81 % 1009,7 hPa 0,0 l/m 6,4 km/h (2 Bft) W-SW 247 0,000 mm 0,0 UV-I 23 W/m 13,4 C 16,7 C 9,7 km/h (2 Bft) 91,30 %
02.07.2020 06:16 16,7 C 15,6 C 81 % 1009,7 hPa 0,0 l/m 8,0 km/h (2 Bft) W-SW 247 0,000 mm 0,0 UV-I 23 W/m 13,4 C 15,9 C 9,7 km/h (2 Bft) 100,00 %
02.07.2020 06:15 16,7 C 15,6 C 81 % 1009,7 hPa 0,0 l/m 6,4 km/h (2 Bft) W 270 0,000 mm 0,0 UV-I 23 W/m 13,4 C 16,7 C 9,7 km/h (2 Bft) 86,96 %
02.07.2020 06:14 16,6 C 15,6 C 81 % 1009,6 hPa 0,0 l/m 6,4 km/h (2 Bft) W 270 0,000 mm 0,0 UV-I 23 W/m 13,3 C 16,6 C 9,7 km/h (2 Bft) 95,65 %
02.07.2020 06:13 16,6 C 15,6 C 81 % 1009,7 hPa 0,0 l/m 4,8 km/h (1 Bft) W 270 0,000 mm 0,0 UV-I 23 W/m 13,3 C 16,6 C 6,4 km/h (2 Bft) 95,65 %
02.07.2020 06:12 16,6 C 15,6 C 81 % 1009,5 hPa 0,0 l/m 6,4 km/h (2 Bft) W-SW 247 0,000 mm 0,0 UV-I 21 W/m 13,3 C 16,6 C 9,7 km/h (2 Bft) 91,30 %
02.07.2020 06:11 16,5 C 15,6 C 81 % 1009,5 hPa 0,0 l/m 6,4 km/h (2 Bft) W-SW 247 0,000 mm 0,0 UV-I 21 W/m 13,2 C 16,5 C 11,3 km/h (2 Bft) 95,65 %
02.07.2020 06:10 16,5 C 15,6 C 82 % 1009,5 hPa 0,0 l/m 6,4 km/h (2 Bft) W-SW 247 0,000 mm 0,0 UV-I 21 W/m 13,4 C 16,5 C 9,7 km/h (2 Bft) 91,30 %
02.07.2020 06:09 16,5 C 15,6 C 82 % 1009,5 hPa 0,0 l/m 8,0 km/h (2 Bft) W-SW 247 0,000 mm 0,0 UV-I 21 W/m 13,4 C 15,7 C 9,7 km/h (2 Bft) 91,30 %
02.07.2020 06:08 16,4 C 15,6 C 81 % 1009,5 hPa 0,0 l/m 6,4 km/h (2 Bft) W-SW 247 0,000 mm 0,0 UV-I 21 W/m 13,1 C 16,4 C 11,3 km/h (2 Bft) 91,30 %
02.07.2020 06:07 16,4 C 15,6 C 82 % 1009,5 hPa 0,0 l/m 6,4 km/h (2 Bft) W-SW 247 0,000 mm 0,0 UV-I 21 W/m 13,3 C 16,4 C 9,7 km/h (2 Bft) 91,30 %
02.07.2020 06:06 16,3 C 15,6 C 82 % 1009,5 hPa 0,0 l/m 6,4 km/h (2 Bft) W-SW 247 0,000 mm 0,0 UV-I 21 W/m 13,2 C 16,3 C 9,7 km/h (2 Bft) 86,96 %
02.07.2020 06:05 16,3 C 15,6 C 82 % 1009,5 hPa 0,0 l/m 6,4 km/h (2 Bft) W-SW 247 0,000 mm 0,0 UV-I 21 W/m 13,2 C 16,3 C 9,7 km/h (2 Bft) 82,61 %
02.07.2020 06:04 16,3 C 15,6 C 82 % 1009,4 hPa 0,0 l/m 8,0 km/h (2 Bft) W-SW 247 0,000 mm 0,0 UV-I 21 W/m 13,2 C 15,5 C 9,7 km/h (2 Bft) 95,65 %
02.07.2020 06:03 16,3 C 15,6 C 82 % 1009,3 hPa 0,0 l/m 4,8 km/h (1 Bft) W-SW 247 0,000 mm 0,0 UV-I 21 W/m 13,2 C 16,3 C 6,4 km/h (2 Bft) 91,30 %
02.07.2020 06:02 16,2 C 15,6 C 82 % 1009,4 hPa 0,0 l/m 4,8 km/h (1 Bft) W-SW 247 0,000 mm 0,0 UV-I 21 W/m 13,1 C 16,2 C 9,7 km/h (2 Bft) 91,30 %
02.07.2020 06:01 16,3 C 15,6 C 82 % 1009,4 hPa 0,0 l/m 3,2 km/h (1 Bft) W-SW 247 0,000 mm 0,0 UV-I 19 W/m 13,2 C 16,3 C 6,4 km/h (2 Bft) 91,30 %
02.07.2020 06:00 16,2 C 15,6 C 82 % 1009,3 hPa 0,0 l/m 4,8 km/h (1 Bft) W-SW 247 0,025 mm 0,0 UV-I 19 W/m 13,1 C 16,2 C 6,4 km/h (2 Bft) 95,65 %
02.07.2020 05:59 16,3 C 15,6 C 82 % 1009,3 hPa 0,0 l/m 4,8 km/h (1 Bft) W-SW 247 0,000 mm 0,0 UV-I 21 W/m 13,2 C 16,3 C 6,4 km/h (2 Bft) 82,61 %
02.07.2020 05:58 16,2 C 15,6 C 82 % 1009,4 hPa 0,0 l/m 4,8 km/h (1 Bft) W-SW 247 0,000 mm 0,0 UV-I 21 W/m 13,1 C 16,2 C 6,4 km/h (2 Bft) 100,00 %
02.07.2020 05:57 16,2 C 15,6 C 82 % 1009,4 hPa 0,0 l/m 3,2 km/h (1 Bft) SW 225 0,000 mm 0,0 UV-I 19 W/m 13,1 C 16,2 C 6,4 km/h (2 Bft) 82,61 %
02.07.2020 05:56 16,2 C 15,6 C 83 % 1009,4 hPa 0,0 l/m 8,0 km/h (2 Bft) W-SW 247 0,000 mm 0,0 UV-I 19 W/m 13,3 C 15,4 C 11,3 km/h (2 Bft) 95,65 %
02.07.2020 05:55 16,1 C 15,6 C 83 % 1009,4 hPa 0,0 l/m 8,0 km/h (2 Bft) W-SW 247 0,000 mm 0,0 UV-I 19 W/m 13,2 C 15,3 C 12,9 km/h (3 Bft) 86,96 %
02.07.2020 05:54 16,0 C 15,6 C 83 % 1009,4 hPa 0,0 l/m 9,7 km/h (2 Bft) W-SW 247 0,000 mm 0,0 UV-I 19 W/m 13,1 C 14,4 C 12,9 km/h (3 Bft) 100,00 %
02.07.2020 05:53 16,0 C 15,6 C 83 % 1009,5 hPa 0,0 l/m 8,0 km/h (2 Bft) W-SW 247 0,000 mm 0,0 UV-I 19 W/m 13,1 C 15,2 C 11,3 km/h (2 Bft) 91,30 %
02.07.2020 05:52 15,9 C 15,0 C 84 % 1009,4 hPa 0,0 l/m 4,8 km/h (1 Bft) W-SW 247 0,000 mm 0,0 UV-I 19 W/m 13,2 C 15,9 C 9,7 km/h (2 Bft) 86,96 %
02.07.2020 05:51 15,8 C 15,0 C 84 % 1009,4 hPa 0,0 l/m 8,0 km/h (2 Bft) W-SW 247 0,000 mm 0,0 UV-I 19 W/m 13,1 C 14,9 C 11,3 km/h (2 Bft) 100,00 %
02.07.2020 05:50 15,8 C 15,0 C 84 % 1009,4 hPa 0,0 l/m 9,7 km/h (2 Bft) W-SW 247 0,000 mm 0,0 UV-I 18 W/m 13,1 C 14,1 C 12,9 km/h (3 Bft) 86,96 %
02.07.2020 05:49 15,8 C 15,0 C 84 % 1009,4 hPa 0,0 l/m 9,7 km/h (2 Bft) W-SW 247 0,000 mm 0,0 UV-I 18 W/m 13,1 C 14,1 C 11,3 km/h (2 Bft) 91,30 %
02.07.2020 05:48 15,7 C 15,0 C 84 % 1009,4 hPa 0,0 l/m 8,0 km/h (2 Bft) W-SW 247 0,000 mm 0,0 UV-I 19 W/m 13,0 C 14,8 C 12,9 km/h (3 Bft) 95,65 %
02.07.2020 05:47 15,7 C 15,0 C 84 % 1009,3 hPa 0,0 l/m 6,4 km/h (2 Bft) W-SW 247 0,000 mm 0,0 UV-I 18 W/m 13,0 C 15,7 C 11,3 km/h (2 Bft) 95,65 %
02.07.2020 05:46 15,7 C 15,0 C 84 % 1009,4 hPa 0,0 l/m 4,8 km/h (1 Bft) W 270 0,000 mm 0,0 UV-I 18 W/m 13,0 C 15,7 C 9,7 km/h (2 Bft) 91,30 %
02.07.2020 05:45 15,7 C 15,0 C 84 % 1009,2 hPa 0,0 l/m 4,8 km/h (1 Bft) W-SW 247 0,000 mm 0,0 UV-I 18 W/m 13,0 C 15,7 C 6,4 km/h (2 Bft) 100,00 %
02.07.2020 05:44 15,6 C 15,0 C 85 % 1009,4 hPa 0,0 l/m 6,4 km/h (2 Bft) W-SW 247 0,000 mm 0,0 UV-I 16 W/m 13,1 C 15,6 C 9,7 km/h (2 Bft) 95,65 %
02.07.2020 05:43 15,6 C 15,0 C 85 % 1009,4 hPa 0,0 l/m 8,0 km/h (2 Bft) W-SW 247 0,000 mm 0,0 UV-I 16 W/m 13,1 C 14,7 C 12,9 km/h (3 Bft) 95,65 %
02.07.2020 05:42 15,5 C 15,0 C 84 % 1009,4 hPa 0,0 l/m 8,0 km/h (2 Bft) W 270 0,000 mm 0,0 UV-I 16 W/m 12,8 C 14,6 C 11,3 km/h (2 Bft) 95,65 %
02.07.2020 05:41 15,5 C 15,0 C 84 % 1009,4 hPa 0,0 l/m 8,0 km/h (2 Bft) W-SW 247 0,000 mm 0,0 UV-I 16 W/m 12,8 C 14,6 C 11,3 km/h (2 Bft) 95,65 %
02.07.2020 05:40 15,4 C 15,0 C 84 % 1009,3 hPa 0,0 l/m 8,0 km/h (2 Bft) W-SW 247 0,000 mm 0,0 UV-I 14 W/m 12,7 C 14,5 C 9,7 km/h (2 Bft) 95,65 %
02.07.2020 05:39 15,4 C 15,0 C 84 % 1009,3 hPa 0,0 l/m 4,8 km/h (1 Bft) W-SW 247 0,000 mm 0,0 UV-I 14 W/m 12,7 C 15,4 C 8,0 km/h (2 Bft) 95,65 %
02.07.2020 05:38 15,4 C 15,0 C 84 % 1009,3 hPa 0,0 l/m 4,8 km/h (1 Bft) W-SW 247 0,000 mm 0,0 UV-I 14 W/m 12,7 C 15,4 C 9,7 km/h (2 Bft) 91,30 %
02.07.2020 05:37 15,4 C 15,0 C 85 % 1009,3 hPa 0,0 l/m 6,4 km/h (2 Bft) W-SW 247 0,000 mm 0,0 UV-I 14 W/m 12,9 C 15,4 C 11,3 km/h (2 Bft) 95,65 %
02.07.2020 05:36 15,3 C 15,0 C 85 % 1009,3 hPa 0,0 l/m 4,8 km/h (1 Bft) W-SW 247 0,000 mm 0,0 UV-I 14 W/m 12,8 C 15,3 C 6,4 km/h (2 Bft) 95,65 %
02.07.2020 05:35 15,3 C 15,0 C 85 % 1009,2 hPa 0,0 l/m 6,4 km/h (2 Bft) W-SW 247 0,000 mm 0,0 UV-I 12 W/m 12,8 C 15,3 C 9,7 km/h (2 Bft) 95,65 %
02.07.2020 05:34 15,3 C 15,0 C 85 % 1009,2 hPa 0,0 l/m 4,8 km/h (1 Bft) W-SW 247 0,000 mm 0,0 UV-I 12 W/m 12,8 C 15,3 C 6,4 km/h (2 Bft) 91,30 %
02.07.2020 05:33 15,3 C 15,0 C 85 % 1009,3 hPa 0,0 l/m 4,8 km/h (1 Bft) SW 225 0,000 mm 0,0 UV-I 12 W/m 12,8 C 15,3 C 9,7 km/h (2 Bft) 100,00 %
02.07.2020 05:32 15,3 C 15,0 C 85 % 1009,4 hPa 0,0 l/m 4,8 km/h (1 Bft) W 270 0,000 mm 0,0 UV-I 12 W/m 12,8 C 15,3 C 6,4 km/h (2 Bft) 95,65 %
02.07.2020 05:31 15,3 C 15,0 C 85 % 1009,4 hPa 0,0 l/m 3,2 km/h (1 Bft) W 270 0,000 mm 0,0 UV-I 12 W/m 12,8 C 15,3 C 9,7 km/h (2 Bft) 91,30 %
02.07.2020 05:30 15,2 C 15,0 C 85 % 1009,3 hPa 0,0 l/m 4,8 km/h (1 Bft) SW 225 0,000 mm 0,0 UV-I 12 W/m 12,7 C 15,2 C 9,7 km/h (2 Bft) 95,65 %
02.07.2020 05:29 15,2 C 15,0 C 85 % 1009,3 hPa 0,0 l/m 4,8 km/h (1 Bft) W 270 0,000 mm 0,0 UV-I 12 W/m 12,7 C 15,2 C 9,7 km/h (2 Bft) 95,65 %
02.07.2020 05:28 15,2 C 15,0 C 85 % 1009,3 hPa 0,0 l/m 4,8 km/h (1 Bft) W-SW 247 0,000 mm 0,0 UV-I 11 W/m 12,7 C 15,2 C 9,7 km/h (2 Bft) 95,65 %
02.07.2020 05:27 15,2 C 15,0 C 85 % 1009,3 hPa 0,0 l/m 6,4 km/h (2 Bft) W-SW 247 0,000 mm 0,0 UV-I 11 W/m 12,7 C 15,2 C 11,3 km/h (2 Bft) 100,00 %
02.07.2020 05:26 15,2 C 15,0 C 85 % 1009,2 hPa 0,0 l/m 4,8 km/h (1 Bft) W-SW 247 0,000 mm 0,0 UV-I 11 W/m 12,7 C 15,2 C 6,4 km/h (2 Bft) 91,30 %
02.07.2020 05:25 15,3 C 15,0 C 85 % 1009,2 hPa 0,0 l/m 4,8 km/h (1 Bft) W-SW 247 0,000 mm 0,0 UV-I 11 W/m 12,8 C 15,3 C 9,7 km/h (2 Bft) 95,65 %
02.07.2020 05:24 15,3 C 15,0 C 84 % 1009,2 hPa 0,0 l/m 4,8 km/h (1 Bft) W-SW 247 0,000 mm 0,0 UV-I 11 W/m 12,6 C 15,3 C 6,4 km/h (2 Bft) 100,00 %
02.07.2020 05:23 15,3 C 15,0 C 84 % 1009,2 hPa 0,0 l/m 4,8 km/h (1 Bft) W-SW 247 0,000 mm 0,0 UV-I 9 W/m 12,6 C 15,3 C 6,4 km/h (2 Bft) 95,65 %
02.07.2020 05:22 15,4 C 15,0 C 84 % 1009,3 hPa 0,0 l/m 3,2 km/h (1 Bft) W-SW 247 0,000 mm 0,0 UV-I 9 W/m 12,7 C 15,4 C 4,8 km/h (1 Bft) 95,65 %
02.07.2020 05:21 15,4 C 15,0 C 84 % 1009,3 hPa 0,0 l/m 4,8 km/h (1 Bft) W-SW 247 0,000 mm 0,0 UV-I 9 W/m 12,7 C 15,4 C 6,4 km/h (2 Bft) 100,00 %
02.07.2020 05:20 15,4 C 15,0 C 84 % 1009,3 hPa 0,0 l/m 3,2 km/h (1 Bft) W 270 0,000 mm 0,0 UV-I 9 W/m 12,7 C 15,4 C 4,8 km/h (1 Bft) 86,96 %
02.07.2020 05:19 15,5 C 15,6 C 84 % 1009,3 hPa 0,0 l/m 4,8 km/h (1 Bft) W-SW 247 0,000 mm 0,0 UV-I 7 W/m 12,8 C 15,5 C 6,4 km/h (2 Bft) 91,30 %
02.07.2020 05:18 15,6 C 15,6 C 84 % 1009,3 hPa 0,0 l/m 3,2 km/h (1 Bft) W 270 0,000 mm 0,0 UV-I 7 W/m 12,9 C 15,6 C 6,4 km/h (2 Bft) 100,00 %
02.07.2020 05:17 15,6 C 15,6 C 84 % 1009,3 hPa 0,0 l/m 3,2 km/h (1 Bft) W-SW 247 0,000 mm 0,0 UV-I 7 W/m 12,9 C 15,6 C 4,8 km/h (1 Bft) 95,65 %
02.07.2020 05:16 15,6 C 15,6 C 84 % 1009,4 hPa 0,0 l/m 4,8 km/h (1 Bft) W-SW 247 0,000 mm 0,0 UV-I 7 W/m 12,9 C 15,6 C 6,4 km/h (2 Bft) 95,65 %
02.07.2020 05:15 15,7 C 15,6 C 84 % 1009,3 hPa 0,0 l/m 4,8 km/h (1 Bft) W 270 0,000 mm 0,0 UV-I 7 W/m 13,0 C 15,7 C 6,4 km/h (2 Bft) 100,00 %
02.07.2020 05:14 15,7 C 15,6 C 84 % 1009,3 hPa 0,0 l/m 4,8 km/h (1 Bft) W 270 0,000 mm 0,0 UV-I 7 W/m 13,0 C 15,7 C 6,4 km/h (2 Bft) 95,65 %
02.07.2020 05:13 15,7 C 15,6 C 84 % 1009,4 hPa 0,0 l/m 4,8 km/h (1 Bft) W 270 0,000 mm 0,0 UV-I 5 W/m 13,0 C 15,7 C 9,7 km/h (2 Bft) 95,65 %
02.07.2020 05:12 15,7 C 15,6 C 84 % 1009,4 hPa 0,0 l/m 4,8 km/h (1 Bft) W-SW 247 0,000 mm 0,0 UV-I 5 W/m 13,0 C 15,7 C 9,7 km/h (2 Bft) 100,00 %
02.07.2020 05:11 15,7 C 15,6 C 84 % 1009,4 hPa 0,0 l/m 6,4 km/h (2 Bft) W-SW 247 0,000 mm 0,0 UV-I 5 W/m 13,0 C 15,7 C 12,9 km/h (3 Bft) 91,30 %
02.07.2020 05:10 15,7 C 15,6 C 84 % 1009,4 hPa 0,0 l/m 6,4 km/h (2 Bft) SW 225 0,000 mm 0,0 UV-I 5 W/m 13,0 C 15,7 C 9,7 km/h (2 Bft) 91,30 %
02.07.2020 05:09 15,8 C 15,6 C 84 % 1009,4 hPa 0,0 l/m 6,4 km/h (2 Bft) W-SW 247 0,000 mm 0,0 UV-I 5 W/m 13,1 C 15,8 C 11,3 km/h (2 Bft) 95,65 %
02.07.2020 05:08 15,8 C 15,6 C 84 % 1009,5 hPa 0,0 l/m 9,7 km/h (2 Bft) W-SW 247 0,000 mm 0,0 UV-I 5 W/m 13,1 C 14,1 C 14,5 km/h (3 Bft) 91,30 %
02.07.2020 05:07 15,8 C 15,6 C 84 % 1009,5 hPa 0,0 l/m 9,7 km/h (2 Bft) W-SW 247 0,000 mm 0,0 UV-I 5 W/m 13,1 C 14,1 C 14,5 km/h (3 Bft) 95,65 %
02.07.2020 05:06 15,8 C 15,6 C 84 % 1009,6 hPa 0,0 l/m 9,7 km/h (2 Bft) W-SW 247 0,000 mm 0,0 UV-I 0 W/m 13,1 C 14,1 C 16,1 km/h (3 Bft) 100,00 %
02.07.2020 05:05 15,9 C 15,6 C 84 % 1009,6 hPa 0,0 l/m 4,8 km/h (1 Bft) W-SW 247 0,000 mm 0,0 UV-I 0 W/m 13,2 C 15,9 C 9,7 km/h (2 Bft) 95,65 %
02.07.2020 05:04 15,8 C 15,6 C 84 % 1009,6 hPa 0,0 l/m 6,4 km/h (2 Bft) W-SW 247 0,000 mm 0,0 UV-I 0 W/m 13,1 C 15,8 C 11,3 km/h (2 Bft) 95,65 %
02.07.2020 05:03 15,8 C 15,6 C 84 % 1009,5 hPa 0,0 l/m 4,8 km/h (1 Bft) W-NW 292 0,000 mm 0,0 UV-I 0 W/m 13,1 C 15,8 C 6,4 km/h (2 Bft) 95,65 %
02.07.2020 05:02 15,8 C 15,6 C 84 % 1009,5 hPa 0,0 l/m 4,8 km/h (1 Bft) W-SW 247 0,000 mm 0,0 UV-I 0 W/m 13,1 C 15,8 C 11,3 km/h (2 Bft) 100,00 %
02.07.2020 05:01 15,8 C 15,6 C 84 % 1009,5 hPa 0,0 l/m 6,4 km/h (2 Bft) W 270 0,000 mm 0,0 UV-I 0 W/m 13,1 C 15,8 C 11,3 km/h (2 Bft) 91,30 %
02.07.2020 05:00 15,8 C 15,6 C 84 % 1009,5 hPa 0,0 l/m 6,4 km/h (2 Bft) W 270 0,025 mm 0,0 UV-I 0 W/m 13,1 C 15,8 C 11,3 km/h (2 Bft) 95,65 %
02.07.2020 04:59 15,8 C 15,6 C 84 % 1009,5 hPa 0,0 l/m 9,7 km/h (2 Bft) W-SW 247 0,000 mm 0,0 UV-I 0 W/m 13,1 C 14,1 C 11,3 km/h (2 Bft) 100,00 %
02.07.2020 04:58 15,8 C 15,6 C 84 % 1009,5 hPa 0,0 l/m 6,4 km/h (2 Bft) W 270 0,000 mm 0,0 UV-I 0 W/m 13,1 C 15,8 C 9,7 km/h (2 Bft) 91,30 %
02.07.2020 04:57 15,8 C 15,6 C 84 % 1009,4 hPa 0,0 l/m 8,0 km/h (2 Bft) W-SW 247 0,000 mm 0,0 UV-I 0 W/m 13,1 C 14,9 C 12,9 km/h (3 Bft) 95,65 %
02.07.2020 04:56 15,9 C 15,6 C 84 % 1009,4 hPa 0,0 l/m 8,0 km/h (2 Bft) W-SW 247 0,000 mm 0,0 UV-I 0 W/m 13,2 C 15,0 C 11,3 km/h (2 Bft) 100,00 %
02.07.2020 04:55 15,9 C 15,6 C 83 % 1009,5 hPa 0,0 l/m 11,3 km/h (2 Bft) W-SW 247 0,000 mm 0,0 UV-I 0 W/m 13,0 C 13,6 C 14,5 km/h (3 Bft) 95,65 %
02.07.2020 04:54 15,9 C 15,6 C 83 % 1009,6 hPa 0,0 l/m 11,3 km/h (2 Bft) W-SW 247 0,000 mm 0,0 UV-I 0 W/m 13,0 C 13,6 C 16,1 km/h (3 Bft) 95,65 %
02.07.2020 04:53 16,1 C 15,6 C 83 % 1009,5 hPa 0,0 l/m 8,0 km/h (2 Bft) W-SW 247 0,000 mm 0,0 UV-I 0 W/m 13,2 C 15,3 C 14,5 km/h (3 Bft) 100,00 %
02.07.2020 04:52 16,0 C 15,6 C 83 % 1009,4 hPa 0,0 l/m 6,4 km/h (2 Bft) W-SW 247 0,000 mm 0,0 UV-I 0 W/m 13,1 C 16,0 C 12,9 km/h (3 Bft) 91,30 %
02.07.2020 04:51 16,0 C 15,6 C 83 % 1009,5 hPa 0,0 l/m 11,3 km/h (2 Bft) W-SW 247 0,000 mm 0,0 UV-I 0 W/m 13,1 C 13,7 C 16,1 km/h (3 Bft) 95,65 %
02.07.2020 04:50 16,1 C 15,6 C 83 % 1009,5 hPa 0,0 l/m 11,3 km/h (2 Bft) W-SW 247 0,000 mm 0,0 UV-I 0 W/m 13,2 C 13,8 C 16,1 km/h (3 Bft) 100,00 %
02.07.2020 04:49 16,0 C 15,6 C 83 % 1009,5 hPa 0,0 l/m 9,7 km/h (2 Bft) W-SW 247 0,000 mm 0,0 UV-I 0 W/m 13,1 C 14,4 C 12,9 km/h (3 Bft) 95,65 %
02.07.2020 04:48 16,0 C 15,6 C 83 % 1009,5 hPa 0,0 l/m 9,7 km/h (2 Bft) W-SW 247 0,000 mm 0,0 UV-I 0 W/m 13,1 C 14,4 C 14,5 km/h (3 Bft) 95,65 %
02.07.2020 04:47 16,1 C 15,6 C 83 % 1009,7 hPa 0,0 l/m 6,4 km/h (2 Bft) W-SW 247 0,000 mm 0,0 UV-I 0 W/m 13,2 C 16,1 C 12,9 km/h (3 Bft) 95,65 %
02.07.2020 04:46 16,1 C 15,6 C 83 % 1009,6 hPa 0,0 l/m 6,4 km/h (2 Bft) W-SW 247 0,000 mm 0,0 UV-I 0 W/m 13,2 C 16,1 C 11,3 km/h (2 Bft) 95,65 %
02.07.2020 04:45 16,1 C 15,6 C 83 % 1009,5 hPa 0,0 l/m 6,4 km/h (2 Bft) W-SW 247 0,000 mm 0,0 UV-I 0 W/m 13,2 C 16,1 C 11,3 km/h (2 Bft) 95,65 %
02.07.2020 04:44 16,1 C 15,6 C 82 % 1009,6 hPa 0,0 l/m 9,7 km/h (2 Bft) W-SW 247 0,000 mm 0,0 UV-I 0 W/m 13,0 C 14,5 C 14,5 km/h (3 Bft) 100,00 %
02.07.2020 04:43 16,1 C 15,6 C 82 % 1009,5 hPa 0,0 l/m 9,7 km/h (2 Bft) W-SW 247 0,000 mm 0,0 UV-I 0 W/m 13,0 C 14,5 C 14,5 km/h (3 Bft) 91,30 %
02.07.2020 04:42 16,1 C 15,6 C 82 % 1009,5 hPa 0,0 l/m 6,4 km/h (2 Bft) SW 225 0,000 mm 0,0 UV-I 0 W/m 13,0 C 16,1 C 12,9 km/h (3 Bft) 95,65 %
02.07.2020 04:41 16,1 C 15,6 C 83 % 1009,4 hPa 0,0 l/m 6,4 km/h (2 Bft) W-SW 247 0,000 mm 0,0 UV-I 0 W/m 13,2 C 16,1 C 9,7 km/h (2 Bft) 95,65 %
02.07.2020 04:40 16,1 C 15,6 C 83 % 1009,5 hPa 0,0 l/m 6,4 km/h (2 Bft) W-SW 247 0,000 mm 0,0 UV-I 0 W/m 13,2 C 16,1 C 9,7 km/h (2 Bft) 91,30 %
02.07.2020 04:39 16,0 C 15,6 C 83 % 1009,5 hPa 0,0 l/m 4,8 km/h (1 Bft) W-SW 247 0,000 mm 0,0 UV-I 0 W/m 13,1 C 16,0 C 8,0 km/h (2 Bft) 95,65 %
02.07.2020 04:38 16,0 C 15,6 C 83 % 1009,4 hPa 0,0 l/m 8,0 km/h (2 Bft) W-SW 247 0,000 mm 0,0 UV-I 0 W/m 13,1 C 15,2 C 12,9 km/h (3 Bft) 100,00 %
02.07.2020 04:37 16,1 C 15,6 C 82 % 1009,4 hPa 0,0 l/m 9,7 km/h (2 Bft) W-SW 247 0,000 mm 0,0 UV-I 0 W/m 13,0 C 14,5 C 12,9 km/h (3 Bft) 91,30 %
02.07.2020 04:36 16,1 C 15,6 C 82 % 1009,3 hPa 0,0 l/m 11,3 km/h (2 Bft) W-SW 247 0,000 mm 0,0 UV-I 0 W/m 13,0 C 13,8 C 14,5 km/h (3 Bft) 95,65 %
02.07.2020 04:35 16,1 C 15,6 C 82 % 1009,4 hPa 0,0 l/m 8,0 km/h (2 Bft) W-SW 247 0,000 mm 0,0 UV-I 0 W/m 13,0 C 15,3 C 12,9 km/h (3 Bft) 100,00 %
02.07.2020 04:34 16,2 C 15,6 C 82 % 1009,4 hPa 0,0 l/m 8,0 km/h (2 Bft) W-SW 247 0,000 mm 0,0 UV-I 0 W/m 13,1 C 15,4 C 12,9 km/h (3 Bft) 91,30 %
02.07.2020 04:33 16,2 C 15,6 C 82 % 1009,4 hPa 0,0 l/m 8,0 km/h (2 Bft) W-SW 247 0,000 mm 0,0 UV-I 0 W/m 13,1 C 15,4 C 12,9 km/h (3 Bft) 91,30 %
02.07.2020 04:32 16,3 C 15,6 C 81 % 1009,4 hPa 0,0 l/m 8,0 km/h (2 Bft) W-SW 247 0,000 mm 0,0 UV-I 0 W/m 13,0 C 15,5 C 11,3 km/h (2 Bft) 95,65 %
02.07.2020 04:31 16,3 C 15,6 C 81 % 1009,5 hPa 0,0 l/m 8,0 km/h (2 Bft) W 270 0,000 mm 0,0 UV-I 0 W/m 13,0 C 15,5 C 12,9 km/h (3 Bft) 86,96 %
02.07.2020 04:30 16,4 C 15,6 C 81 % 1009,4 hPa 0,0 l/m 8,0 km/h (2 Bft) W-SW 247 0,000 mm 0,0 UV-I 0 W/m 13,1 C 15,6 C 12,9 km/h (3 Bft) 91,30 %
02.07.2020 04:29 16,4 C 15,6 C 81 % 1009,4 hPa 0,0 l/m 6,4 km/h (2 Bft) W-SW 247 0,000 mm 0,0 UV-I 0 W/m 13,1 C 16,4 C 9,7 km/h (2 Bft) 95,65 %
02.07.2020 04:28 16,4 C 15,6 C 81 % 1009,3 hPa 0,0 l/m 6,4 km/h (2 Bft) W-SW 247 0,000 mm 0,0 UV-I 0 W/m 13,1 C 16,4 C 9,7 km/h (2 Bft) 91,30 %
02.07.2020 04:27 16,5 C 15,6 C 81 % 1009,3 hPa 0,0 l/m 6,4 km/h (2 Bft) W-NW 292 0,000 mm 0,0 UV-I 0 W/m 13,2 C 16,5 C 11,3 km/h (2 Bft) 91,30 %
02.07.2020 04:26 16,5 C 15,6 C 81 % 1009,3 hPa 0,0 l/m 4,8 km/h (1 Bft) W 270 0,000 mm 0,0 UV-I 0 W/m 13,2 C 16,5 C 8,0 km/h (2 Bft) 95,65 %
02.07.2020 04:25 16,4 C 15,6 C 81 % 1009,4 hPa 0,0 l/m 9,7 km/h (2 Bft) W-NW 292 0,000 mm 0,0 UV-I 0 W/m 13,1 C 14,8 C 12,9 km/h (3 Bft) 91,30 %
02.07.2020 04:24 16,4 C 15,6 C 81 % 1009,4 hPa 0,0 l/m 6,4 km/h (2 Bft) W-NW 292 0,000 mm 0,0 UV-I 0 W/m 13,1 C 16,4 C 12,9 km/h (3 Bft) 91,30 %
02.07.2020 04:23 16,4 C 15,6 C 81 % 1009,4 hPa 0,0 l/m 9,7 km/h (2 Bft) W-NW 292 0,000 mm 0,0 UV-I 0 W/m 13,1 C 14,8 C 17,7 km/h (3 Bft) 91,30 %
02.07.2020 04:22 16,4 C 15,6 C 81 % 1009,4 hPa 0,0 l/m 8,0 km/h (2 Bft) W-NW 292 0,000 mm 0,0 UV-I 0 W/m 13,1 C 15,6 C 12,9 km/h (3 Bft) 86,96 %
02.07.2020 04:21 16,4 C 15,6 C 81 % 1009,4 hPa 0,0 l/m 4,8 km/h (1 Bft) SW 225 0,000 mm 0,0 UV-I 0 W/m 13,1 C 16,4 C 11,3 km/h (2 Bft) 91,30 %
02.07.2020 04:20 16,4 C 15,6 C 81 % 1009,4 hPa 0,0 l/m 8,0 km/h (2 Bft) W-NW 292 0,000 mm 0,0 UV-I 0 W/m 13,1 C 15,6 C 12,9 km/h (3 Bft) 95,65 %
02.07.2020 04:19 16,4 C 15,6 C 81 % 1009,3 hPa 0,0 l/m 9,7 km/h (2 Bft) W-NW 292 0,000 mm 0,0 UV-I 0 W/m 13,1 C 14,8 C 14,5 km/h (3 Bft) 82,61 %
02.07.2020 04:18 16,3 C 15,6 C 82 % 1009,3 hPa 0,0 l/m 9,7 km/h (2 Bft) W-NW 292 0,000 mm 0,0 UV-I 0 W/m 13,2 C 14,7 C 14,5 km/h (3 Bft) 95,65 %
02.07.2020 04:17 16,3 C 15,6 C 82 % 1009,3 hPa 0,0 l/m 11,3 km/h (2 Bft) NW 315 0,000 mm 0,0 UV-I 0 W/m 13,2 C 14,0 C 12,9 km/h (3 Bft) 91,30 %
02.07.2020 04:16 16,2 C 15,6 C 82 % 1009,2 hPa 0,0 l/m 9,7 km/h (2 Bft) W-NW 292 0,000 mm 0,0 UV-I 0 W/m 13,1 C 14,6 C 16,1 km/h (3 Bft) 91,30 %
02.07.2020 04:15 16,1 C 15,0 C 82 % 1009,2 hPa 0,0 l/m 8,0 km/h (2 Bft) W-NW 292 0,000 mm 0,0 UV-I 0 W/m 13,0 C 15,3 C 12,9 km/h (3 Bft) 91,30 %
02.07.2020 04:14 16,1 C 15,0 C 82 % 1009,1 hPa 0,0 l/m 6,4 km/h (2 Bft) W-SW 247 0,000 mm 0,0 UV-I 0 W/m 13,0 C 16,1 C 14,5 km/h (3 Bft) 91,30 %
02.07.2020 04:13 16,0 C 15,0 C 83 % 1009,1 hPa 0,0 l/m 8,0 km/h (2 Bft) W-SW 247 0,000 mm 0,0 UV-I 0 W/m 13,1 C 15,2 C 12,9 km/h (3 Bft) 95,65 %
02.07.2020 04:12 15,9 C 15,0 C 83 % 1009,1 hPa 0,0 l/m 6,4 km/h (2 Bft) W-SW 247 0,000 mm 0,0 UV-I 0 W/m 13,0 C 15,9 C 11,3 km/h (2 Bft) 91,30 %
02.07.2020 04:11 15,8 C 15,0 C 83 % 1009,1 hPa 0,0 l/m 8,0 km/h (2 Bft) W-SW 247 0,000 mm 0,0 UV-I 0 W/m 12,9 C 14,9 C 11,3 km/h (2 Bft) 91,30 %
02.07.2020 04:10 15,8 C 15,0 C 83 % 1009,0 hPa 0,0 l/m 8,0 km/h (2 Bft) W 270 0,000 mm 0,0 UV-I 0 W/m 12,9 C 14,9 C 11,3 km/h (2 Bft) 91,30 %
02.07.2020 04:09 15,8 C 15,0 C 83 % 1008,9 hPa 0,0 l/m 8,0 km/h (2 Bft) W-SW 247 0,000 mm 0,0 UV-I 0 W/m 12,9 C 14,9 C 11,3 km/h (2 Bft) 91,30 %
02.07.2020 04:08 15,7 C 15,0 C 83 % 1008,9 hPa 0,0 l/m 8,0 km/h (2 Bft) W-SW 247 0,000 mm 0,0 UV-I 0 W/m 12,8 C 14,8 C 12,9 km/h (3 Bft) 86,96 %
02.07.2020 04:07 15,7 C 15,0 C 83 % 1008,9 hPa 0,0 l/m 8,0 km/h (2 Bft) W-SW 247 0,000 mm 0,0 UV-I 0 W/m 12,8 C 14,8 C 11,3 km/h (2 Bft) 100,00 %
02.07.2020 04:06 15,7 C 15,0 C 83 % 1008,9 hPa 0,0 l/m 11,3 km/h (2 Bft) W-SW 247 0,000 mm 0,0 UV-I 0 W/m 12,8 C 13,3 C 12,9 km/h (3 Bft) 86,96 %
02.07.2020 04:05 15,8 C 15,0 C 83 % 1008,9 hPa 0,0 l/m 11,3 km/h (2 Bft) W-SW 247 0,000 mm 0,0 UV-I 0 W/m 12,9 C 13,5 C 12,9 km/h (3 Bft) 91,30 %
02.07.2020 04:04 15,8 C 15,0 C 83 % 1008,8 hPa 0,0 l/m 9,7 km/h (2 Bft) W-SW 247 0,000 mm 0,0 UV-I 0 W/m 12,9 C 14,1 C 12,9 km/h (3 Bft) 91,30 %
02.07.2020 04:03 15,8 C 15,0 C 83 % 1008,8 hPa 0,0 l/m 11,3 km/h (2 Bft) W-SW 247 0,000 mm 0,0 UV-I 0 W/m 12,9 C 13,5 C 14,5 km/h (3 Bft) 91,30 %
02.07.2020 04:02 15,8 C 15,0 C 83 % 1008,7 hPa 0,0 l/m 9,7 km/h (2 Bft) W-SW 247 0,000 mm 0,0 UV-I 0 W/m 12,9 C 14,1 C 11,3 km/h (2 Bft) 86,96 %
02.07.2020 04:01 15,8 C 15,0 C 83 % 1008,8 hPa 0,0 l/m 8,0 km/h (2 Bft) W-SW 247 0,000 mm 0,0 UV-I 0 W/m 12,9 C 14,9 C 11,3 km/h (2 Bft) 95,65 %
02.07.2020 04:00 15,8 C 15,0 C 83 % 1008,7 hPa 0,0 l/m 4,8 km/h (1 Bft) W-SW 247 0,025 mm 0,0 UV-I 0 W/m 12,9 C 15,8 C 9,7 km/h (2 Bft) 86,96 %
02.07.2020 03:59 15,9 C 15,0 C 83 % 1008,8 hPa 0,0 l/m 4,8 km/h (1 Bft) W-SW 247 0,000 mm 0,0 UV-I 0 W/m 13,0 C 15,9 C 6,4 km/h (2 Bft) 95,65 %
02.07.2020 03:58 15,8 C 15,0 C 83 % 1008,8 hPa 0,0 l/m 4,8 km/h (1 Bft) W-SW 247 0,000 mm 0,0 UV-I 0 W/m 12,9 C 15,8 C 8,0 km/h (2 Bft) 95,65 %
02.07.2020 03:57 15,9 C 15,0 C 83 % 1008,8 hPa 0,0 l/m 6,4 km/h (2 Bft) W-SW 247 0,000 mm 0,0 UV-I 0 W/m 13,0 C 15,9 C 9,7 km/h (2 Bft) 86,96 %
02.07.2020 03:56 15,9 C 15,0 C 83 % 1008,7 hPa 0,0 l/m 6,4 km/h (2 Bft) W-SW 247 0,000 mm 0,0 UV-I 0 W/m 13,0 C 15,9 C 9,7 km/h (2 Bft) 95,65 %
02.07.2020 03:55 15,9 C 15,6 C 83 % 1008,7 hPa 0,0 l/m 4,8 km/h (1 Bft) W 270 0,000 mm 0,0 UV-I 0 W/m 13,0 C 15,9 C 6,4 km/h (2 Bft) 100,00 %
02.07.2020 03:54 15,9 C 15,6 C 83 % 1008,7 hPa 0,0 l/m 6,4 km/h (2 Bft) W-SW 247 0,000 mm 0,0 UV-I 0 W/m 13,0 C 15,9 C 8,0 km/h (2 Bft) 91,30 %
02.07.2020 03:53 15,9 C 15,6 C 83 % 1008,6 hPa 0,0 l/m 6,4 km/h (2 Bft) W-SW 247 0,000 mm 0,0 UV-I 0 W/m 13,0 C 15,9 C 9,7 km/h (2 Bft) 95,65 %
02.07.2020 03:52 15,9 C 15,6 C 83 % 1008,6 hPa 0,0 l/m 6,4 km/h (2 Bft) W-SW 247 0,000 mm 0,0 UV-I 0 W/m 13,0 C 15,9 C 11,3 km/h (2 Bft) 100,00 %
02.07.2020 03:51 15,9 C 15,6 C 83 % 1008,7 hPa 0,0 l/m 6,4 km/h (2 Bft) W-SW 247 0,000 mm 0,0 UV-I 0 W/m 13,0 C 15,9 C 8,0 km/h (2 Bft) 91,30 %
02.07.2020 03:50 16,0 C 15,6 C 83 % 1008,6 hPa 0,0 l/m 6,4 km/h (2 Bft) W-SW 247 0,000 mm 0,0 UV-I 0 W/m 13,1 C 16,0 C 9,7 km/h (2 Bft) 91,30 %
02.07.2020 03:49 16,0 C 15,6 C 83 % 1008,6 hPa 0,0 l/m 6,4 km/h (2 Bft) W-SW 247 0,000 mm 0,0 UV-I 0 W/m 13,1 C 16,0 C 9,7 km/h (2 Bft) 100,00 %
02.07.2020 03:48 16,0 C 15,6 C 83 % 1008,6 hPa 0,0 l/m 8,0 km/h (2 Bft) W-SW 247 0,000 mm 0,0 UV-I 0 W/m 13,1 C 15,2 C 11,3 km/h (2 Bft) 95,65 %
02.07.2020 03:47 16,0 C 15,6 C 83 % 1008,7 hPa 0,0 l/m 8,0 km/h (2 Bft) W-SW 247 0,000 mm 0,0 UV-I 0 W/m 13,1 C 15,2 C 11,3 km/h (2 Bft) 95,65 %
02.07.2020 03:46 16,1 C 15,6 C 83 % 1008,7 hPa 0,0 l/m 8,0 km/h (2 Bft) W-SW 247 0,000 mm 0,0 UV-I 0 W/m 13,2 C 15,3 C 11,3 km/h (2 Bft) 95,65 %
02.07.2020 03:45 16,1 C 15,6 C 83 % 1008,7 hPa 0,0 l/m 6,4 km/h (2 Bft) W-SW 247 0,000 mm 0,0 UV-I 0 W/m 13,2 C 16,1 C 11,3 km/h (2 Bft) 95,65 %
02.07.2020 03:44 16,1 C 15,6 C 83 % 1008,7 hPa 0,0 l/m 9,7 km/h (2 Bft) W-SW 247 0,000 mm 0,0 UV-I 0 W/m 13,2 C 14,5 C 11,3 km/h (2 Bft) 95,65 %
02.07.2020 03:43 16,1 C 15,6 C 83 % 1008,7 hPa 0,0 l/m 8,0 km/h (2 Bft) W-SW 247 0,000 mm 0,0 UV-I 0 W/m 13,2 C 15,3 C 12,9 km/h (3 Bft) 95,65 %
02.07.2020 03:42 16,1 C 15,6 C 83 % 1008,7 hPa 0,0 l/m 6,4 km/h (2 Bft) W-SW 247 0,000 mm 0,0 UV-I 0 W/m 13,2 C 16,1 C 11,3 km/h (2 Bft) 95,65 %
02.07.2020 03:41 16,2 C 15,6 C 83 % 1008,7 hPa 0,0 l/m 8,0 km/h (2 Bft) W-SW 247 0,000 mm 0,0 UV-I 0 W/m 13,3 C 15,4 C 11,3 km/h (2 Bft) 95,65 %
02.07.2020 03:40 16,2 C 15,6 C 83 % 1008,7 hPa 0,0 l/m 6,4 km/h (2 Bft) W-SW 247 0,000 mm 0,0 UV-I 0 W/m 13,3 C 16,2 C 9,7 km/h (2 Bft) 95,65 %
02.07.2020 03:39 16,2 C 15,6 C 83 % 1008,6 hPa 0,0 l/m 4,8 km/h (1 Bft) W-SW 247 0,000 mm 0,0 UV-I 0 W/m 13,3 C 16,2 C 8,0 km/h (2 Bft) 95,65 %
02.07.2020 03:38 16,2 C 15,6 C 83 % 1008,7 hPa 0,0 l/m 6,4 km/h (2 Bft) W-SW 247 0,000 mm 0,0 UV-I 0 W/m 13,3 C 16,2 C 11,3 km/h (2 Bft) 95,65 %
02.07.2020 03:37 16,2 C 15,6 C 83 % 1008,7 hPa 0,0 l/m 6,4 km/h (2 Bft) W-SW 247 0,000 mm 0,0 UV-I 0 W/m 13,3 C 16,2 C 11,3 km/h (2 Bft) 100,00 %
02.07.2020 03:36 16,2 C 15,6 C 83 % 1008,7 hPa 0,0 l/m 6,4 km/h (2 Bft) W-SW 247 0,000 mm 0,0 UV-I 0 W/m 13,3 C 16,2 C 9,7 km/h (2 Bft) 95,65 %
02.07.2020 03:35 16,2 C 15,6 C 83 % 1008,6 hPa 0,0 l/m 8,0 km/h (2 Bft) W-SW 247 0,000 mm 0,0 UV-I 0 W/m 13,3 C 15,4 C 12,9 km/h (3 Bft) 91,30 %
02.07.2020 03:34 16,2 C 15,6 C 83 % 1008,7 hPa 0,0 l/m 8,0 km/h (2 Bft) SW 225 0,000 mm 0,0 UV-I 0 W/m 13,3 C 15,4 C 12,9 km/h (3 Bft) 100,00 %
02.07.2020 03:33 16,3 C 15,6 C 83 % 1008,6 hPa 0,0 l/m 6,4 km/h (2 Bft) W-SW 247 0,000 mm 0,0 UV-I 0 W/m 13,4 C 16,3 C 9,7 km/h (2 Bft) 95,65 %
02.07.2020 03:32 16,3 C 15,6 C 83 % 1008,7 hPa 0,0 l/m 9,7 km/h (2 Bft) W-SW 247 0,000 mm 0,0 UV-I 0 W/m 13,4 C 14,7 C 12,9 km/h (3 Bft) 95,65 %
02.07.2020 03:31 16,3 C 15,6 C 83 % 1008,7 hPa 0,0 l/m 9,7 km/h (2 Bft) W-SW 247 0,000 mm 0,0 UV-I 0 W/m 13,4 C 14,7 C 12,9 km/h (3 Bft) 100,00 %
02.07.2020 03:30 16,3 C 15,6 C 82 % 1008,7 hPa 0,0 l/m 9,7 km/h (2 Bft) SW 225 0,000 mm 0,0 UV-I 0 W/m 13,2 C 14,7 C 14,5 km/h (3 Bft) 95,65 %
02.07.2020 03:29 16,3 C 15,6 C 83 % 1008,7 hPa 0,0 l/m 9,7 km/h (2 Bft) SW 225 0,000 mm 0,0 UV-I 0 W/m 13,4 C 14,7 C 12,9 km/h (3 Bft) 95,65 %
02.07.2020 03:28 16,4 C 15,6 C 83 % 1008,8 hPa 0,0 l/m 11,3 km/h (2 Bft) W-SW 247 0,000 mm 0,0 UV-I 0 W/m 13,5 C 14,1 C 12,9 km/h (3 Bft) 91,30 %
02.07.2020 03:27 16,3 C 15,6 C 83 % 1008,8 hPa 0,0 l/m 9,7 km/h (2 Bft) W-SW 247 0,000 mm 0,0 UV-I 0 W/m 13,4 C 14,7 C 16,1 km/h (3 Bft) 100,00 %
02.07.2020 03:26 16,3 C 15,6 C 83 % 1008,8 hPa 0,0 l/m 6,4 km/h (2 Bft) W-SW 247 0,000 mm 0,0 UV-I 0 W/m 13,4 C 16,3 C 11,3 km/h (2 Bft) 91,30 %
02.07.2020 03:25 16,3 C 15,6 C 83 % 1008,8 hPa 0,0 l/m 9,7 km/h (2 Bft) W-SW 247 0,000 mm 0,0 UV-I 0 W/m 13,4 C 14,7 C 12,9 km/h (3 Bft) 95,65 %
02.07.2020 03:24 16,3 C 15,6 C 83 % 1008,8 hPa 0,0 l/m 12,9 km/h (3 Bft) W-SW 247 0,000 mm 0,0 UV-I 0 W/m 13,4 C 13,4 C 16,1 km/h (3 Bft) 100,00 %
02.07.2020 03:23 16,4 C 15,6 C 83 % 1008,8 hPa 0,0 l/m 11,3 km/h (2 Bft) W-SW 247 0,000 mm 0,0 UV-I 0 W/m 13,5 C 14,1 C 16,1 km/h (3 Bft) 95,65 %
02.07.2020 03:22 16,4 C 15,6 C 82 % 1008,8 hPa 0,0 l/m 9,7 km/h (2 Bft) W-SW 247 0,000 mm 0,0 UV-I 0 W/m 13,3 C 14,8 C 14,5 km/h (3 Bft) 95,65 %
02.07.2020 03:21 16,4 C 15,6 C 82 % 1008,7 hPa 0,0 l/m 11,3 km/h (2 Bft) W-SW 247 0,000 mm 0,0 UV-I 0 W/m 13,3 C 14,1 C 14,5 km/h (3 Bft) 100,00 %
02.07.2020 03:20 16,4 C 15,6 C 82 % 1008,8 hPa 0,0 l/m 9,7 km/h (2 Bft) W-SW 247 0,000 mm 0,0 UV-I 0 W/m 13,3 C 14,8 C 12,9 km/h (3 Bft) 95,65 %
02.07.2020 03:19 16,4 C 16,1 C 82 % 1008,8 hPa 0,0 l/m 8,0 km/h (2 Bft) W-SW 247 0,000 mm 0,0 UV-I 0 W/m 13,3 C 15,6 C 17,7 km/h (3 Bft) 95,65 %
02.07.2020 03:18 16,4 C 15,6 C 82 % 1008,8 hPa 0,0 l/m 11,3 km/h (2 Bft) W-SW 247 0,000 mm 0,0 UV-I 0 W/m 13,3 C 14,1 C 14,5 km/h (3 Bft) 100,00 %
02.07.2020 03:17 16,5 C 15,6 C 82 % 1008,9 hPa 0,0 l/m 14,5 km/h (3 Bft) W-SW 247 0,000 mm 0,0 UV-I 0 W/m 13,4 C 13,2 C 17,7 km/h (3 Bft) 91,30 %
02.07.2020 03:16 16,5 C 16,1 C 82 % 1008,8 hPa 0,0 l/m 9,7 km/h (2 Bft) W-SW 247 0,000 mm 0,0 UV-I 0 W/m 13,4 C 14,9 C 14,5 km/h (3 Bft) 95,65 %
02.07.2020 03:15 16,5 C 16,1 C 82 % 1008,9 hPa 0,0 l/m 12,9 km/h (3 Bft) W-SW 247 0,000 mm 0,0 UV-I 0 W/m 13,4 C 13,7 C 19,3 km/h (3 Bft) 95,65 %
02.07.2020 03:14 16,5 C 16,1 C 82 % 1008,9 hPa 0,0 l/m 11,3 km/h (2 Bft) W-SW 247 0,000 mm 0,0 UV-I 0 W/m 13,4 C 14,3 C 17,7 km/h (3 Bft) 95,65 %
02.07.2020 03:13 16,6 C 16,1 C 82 % 1009,0 hPa 0,0 l/m 11,3 km/h (2 Bft) W-SW 247 0,000 mm 0,0 UV-I 0 W/m 13,5 C 14,4 C 14,5 km/h (3 Bft) 95,65 %
02.07.2020 03:12 16,6 C 16,1 C 82 % 1008,9 hPa 0,0 l/m 9,7 km/h (2 Bft) W-SW 247 0,000 mm 0,0 UV-I 0 W/m 13,5 C 15,0 C 14,5 km/h (3 Bft) 100,00 %
02.07.2020 03:11 16,6 C 16,1 C 82 % 1008,9 hPa 0,0 l/m 11,3 km/h (2 Bft) W-SW 247 0,000 mm 0,0 UV-I 0 W/m 13,5 C 14,4 C 14,5 km/h (3 Bft) 95,65 %
02.07.2020 03:10 16,6 C 16,1 C 82 % 1008,9 hPa 0,0 l/m 9,7 km/h (2 Bft) W-SW 247 0,000 mm 0,0 UV-I 0 W/m 13,5 C 15,0 C 16,1 km/h (3 Bft) 95,65 %
02.07.2020 03:09 16,6 C 16,1 C 81 % 1008,9 hPa 0,0 l/m 11,3 km/h (2 Bft) W-SW 247 0,000 mm 0,0 UV-I 0 W/m 13,3 C 14,4 C 17,7 km/h (3 Bft) 95,65 %
02.07.2020 03:08 16,7 C 16,1 C 81 % 1008,9 hPa 0,0 l/m 11,3 km/h (2 Bft) W-SW 247 0,000 mm 0,0 UV-I 0 W/m 13,4 C 14,5 C 19,3 km/h (3 Bft) 86,96 %
02.07.2020 03:07 16,7 C 16,1 C 81 % 1008,9 hPa 0,0 l/m 11,3 km/h (2 Bft) W-SW 247 0,000 mm 0,0 UV-I 0 W/m 13,4 C 14,5 C 16,1 km/h (3 Bft) 95,65 %
02.07.2020 03:06 16,7 C 16,1 C 81 % 1008,8 hPa 0,0 l/m 12,9 km/h (3 Bft) W-SW 247 0,000 mm 0,0 UV-I 0 W/m 13,4 C 13,9 C 17,7 km/h (3 Bft) 100,00 %
02.07.2020 03:05 16,7 C 16,1 C 81 % 1009,0 hPa 0,0 l/m 14,5 km/h (3 Bft) W-SW 247 0,000 mm 0,0 UV-I 0 W/m 13,4 C 13,4 C 20,9 km/h (4 Bft) 95,65 %
02.07.2020 03:04 16,8 C 16,1 C 80 % 1008,9 hPa 0,0 l/m 12,9 km/h (3 Bft) W-SW 247 0,000 mm 0,0 UV-I 0 W/m 13,3 C 14,0 C 16,1 km/h (3 Bft) 95,65 %
02.07.2020 03:03 16,8 C 16,1 C 80 % 1008,9 hPa 0,0 l/m 9,7 km/h (2 Bft) W-SW 247 0,000 mm 0,0 UV-I 0 W/m 13,3 C 15,2 C 16,1 km/h (3 Bft) 100,00 %
02.07.2020 03:02 16,9 C 16,1 C 80 % 1008,9 hPa 0,0 l/m 8,0 km/h (2 Bft) W-SW 247 0,000 mm 0,0 UV-I 0 W/m 13,4 C 16,1 C 12,9 km/h (3 Bft) 95,65 %
02.07.2020 03:01 16,9 C 16,1 C 80 % 1009,0 hPa 0,0 l/m 11,3 km/h (2 Bft) W-SW 247 0,000 mm 0,0 UV-I 0 W/m 13,4 C 14,7 C 17,7 km/h (3 Bft) 95,65 %
02.07.2020 03:00 16,9 C 16,1 C 80 % 1009,0 hPa 0,0 l/m 11,3 km/h (2 Bft) W-SW 247 0,051 mm 0,0 UV-I 0 W/m 13,4 C 14,7 C 14,5 km/h (3 Bft) 95,65 %
02.07.2020 02:59 16,9 C 16,1 C 80 % 1008,9 hPa 0,0 l/m 11,3 km/h (2 Bft) W-SW 247 0,000 mm 0,0 UV-I 0 W/m 13,4 C 14,7 C 16,1 km/h (3 Bft) 95,65 %
02.07.2020 02:58 16,9 C 16,1 C 80 % 1008,9 hPa 0,0 l/m 11,3 km/h (2 Bft) W-SW 247 0,000 mm 0,0 UV-I 0 W/m 13,4 C 14,7 C 16,1 km/h (3 Bft) 95,65 %
02.07.2020 02:57 17,0 C 16,1 C 79 % 1009,0 hPa 0,0 l/m 14,5 km/h (3 Bft) W-SW 247 0,000 mm 0,0 UV-I 0 W/m 13,3 C 13,8 C 17,7 km/h (3 Bft) 95,65 %
02.07.2020 02:56 17,0 C 16,1 C 79 % 1009,0 hPa 0,0 l/m 14,5 km/h (3 Bft) W-SW 247 0,000 mm 0,0 UV-I 0 W/m 13,3 C 13,8 C 19,3 km/h (3 Bft) 95,65 %
02.07.2020 02:55 16,9 C 16,1 C 79 % 1009,0 hPa 0,0 l/m 12,9 km/h (3 Bft) W-SW 247 0,000 mm 0,0 UV-I 0 W/m 13,2 C 14,2 C 19,3 km/h (3 Bft) 95,65 %
02.07.2020 02:54 17,0 C 15,6 C 79 % 1008,9 hPa 0,0 l/m 16,1 km/h (3 Bft) W-SW 247 0,000 mm 0,0 UV-I 0 W/m 13,3 C 13,3 C 24,1 km/h (4 Bft) 100,00 %
02.07.2020 02:53 17,0 C 15,6 C 79 % 1009,0 hPa 0,0 l/m 12,9 km/h (3 Bft) W-SW 247 0,000 mm 0,0 UV-I 0 W/m 13,3 C 14,3 C 20,9 km/h (4 Bft) 95,65 %
02.07.2020 02:52 17,0 C 15,6 C 79 % 1009,0 hPa 0,0 l/m 14,5 km/h (3 Bft) W-SW 247 0,000 mm 0,0 UV-I 0 W/m 13,3 C 13,8 C 17,7 km/h (3 Bft) 95,65 %
02.07.2020 02:51 16,9 C 15,6 C 79 % 1008,9 hPa 0,0 l/m 16,1 km/h (3 Bft) W-SW 247 0,000 mm 0,0 UV-I 0 W/m 13,2 C 13,2 C 20,9 km/h (4 Bft) 100,00 %
02.07.2020 02:50 17,0 C 15,6 C 78 % 1009,0 hPa 0,0 l/m 12,9 km/h (3 Bft) W-SW 247 0,000 mm 0,0 UV-I 0 W/m 13,1 C 14,3 C 19,3 km/h (3 Bft) 91,30 %
02.07.2020 02:49 17,0 C 15,6 C 78 % 1009,0 hPa 0,0 l/m 12,9 km/h (3 Bft) W-SW 247 0,000 mm 0,0 UV-I 0 W/m 13,1 C 14,3 C 17,7 km/h (3 Bft) 91,30 %
02.07.2020 02:48 17,0 C 15,6 C 78 % 1009,0 hPa 0,0 l/m 16,1 km/h (3 Bft) W-SW 247 0,000 mm 0,0 UV-I 0 W/m 13,1 C 13,3 C 20,9 km/h (4 Bft) 100,00 %
02.07.2020 02:47 17,1 C 15,6 C 77 % 1009,0 hPa 0,0 l/m 14,5 km/h (3 Bft) W-SW 247 0,000 mm 0,0 UV-I 0 W/m 13,0 C 13,9 C 22,5 km/h (4 Bft) 91,30 %
02.07.2020 02:46 17,1 C 15,6 C 77 % 1009,0 hPa 0,0 l/m 12,9 km/h (3 Bft) W-SW 247 0,000 mm 0,0 UV-I 0 W/m 13,0 C 14,4 C 17,7 km/h (3 Bft) 95,65 %
02.07.2020 02:45 17,1 C 15,6 C 77 % 1009,0 hPa 0,0 l/m 14,5 km/h (3 Bft) W-SW 247 0,000 mm 0,0 UV-I 0 W/m 13,0 C 13,9 C 17,7 km/h (3 Bft) 95,65 %
02.07.2020 02:44 17,1 C 15,6 C 76 % 1009,0 hPa 0,0 l/m 11,3 km/h (2 Bft) W-SW 247 0,000 mm 0,0 UV-I 0 W/m 12,8 C 14,9 C 16,1 km/h (3 Bft) 95,65 %
02.07.2020 02:43 17,1 C 15,6 C 75 % 1008,9 hPa 0,0 l/m 12,9 km/h (3 Bft) W-SW 247 0,000 mm 0,0 UV-I 0 W/m 12,6 C 14,4 C 16,1 km/h (3 Bft) 91,30 %
02.07.2020 02:42 17,2 C 15,6 C 75 % 1009,0 hPa 0,0 l/m 9,7 km/h (2 Bft) W-SW 247 0,000 mm 0,0 UV-I 0 W/m 12,7 C 15,7 C 12,9 km/h (3 Bft) 91,30 %
02.07.2020 02:41 17,2 C 15,6 C 75 % 1009,0 hPa 0,0 l/m 8,0 km/h (2 Bft) W 270 0,000 mm 0,0 UV-I 0 W/m 12,7 C 16,4 C 11,3 km/h (2 Bft) 91,30 %
02.07.2020 02:40 17,3 C 15,6 C 74 % 1008,9 hPa 0,0 l/m 9,7 km/h (2 Bft) W 270 0,000 mm 0,0 UV-I 0 W/m 12,6 C 15,8 C 12,9 km/h (3 Bft) 91,30 %
02.07.2020 02:39 17,3 C 15,6 C 74 % 1008,8 hPa 0,0 l/m 9,7 km/h (2 Bft) W-SW 247 0,000 mm 0,0 UV-I 0 W/m 12,6 C 15,8 C 12,9 km/h (3 Bft) 95,65 %
02.07.2020 02:38 17,3 C 16,1 C 74 % 1008,9 hPa 0,0 l/m 9,7 km/h (2 Bft) W-SW 247 0,000 mm 0,0 UV-I 0 W/m 12,6 C 15,8 C 14,5 km/h (3 Bft) 95,65 %
02.07.2020 02:37 17,3 C 16,1 C 74 % 1008,9 hPa 0,0 l/m 9,7 km/h (2 Bft) W-SW 247 0,000 mm 0,0 UV-I 0 W/m 12,6 C 15,8 C 14,5 km/h (3 Bft) 91,30 %
02.07.2020 02:36 17,3 C 16,1 C 74 % 1008,9 hPa 0,0 l/m 9,7 km/h (2 Bft) W-SW 247 0,000 mm 0,0 UV-I 0 W/m 12,6 C 15,8 C 12,9 km/h (3 Bft) 91,30 %
02.07.2020 02:35 17,3 C 16,1 C 74 % 1008,9 hPa 0,0 l/m 11,3 km/h (2 Bft) W-SW 247 0,000 mm 0,0 UV-I 0 W/m 12,6 C 15,2 C 16,1 km/h (3 Bft) 100,00 %
02.07.2020 02:34 17,3 C 16,1 C 74 % 1008,8 hPa 0,0 l/m 11,3 km/h (2 Bft) W-SW 247 0,000 mm 0,0 UV-I 0 W/m 12,6 C 15,2 C 12,9 km/h (3 Bft) 91,30 %
02.07.2020 02:33 17,3 C 16,1 C 74 % 1008,8 hPa 0,0 l/m 8,0 km/h (2 Bft) W-SW 247 0,000 mm 0,0 UV-I 0 W/m 12,6 C 16,5 C 14,5 km/h (3 Bft) 91,30 %
02.07.2020 02:32 17,3 C 16,1 C 74 % 1008,7 hPa 0,0 l/m 9,7 km/h (2 Bft) W-SW 247 0,000 mm 0,0 UV-I 0 W/m 12,6 C 15,8 C 14,5 km/h (3 Bft) 91,30 %
02.07.2020 02:31 17,3 C 16,1 C 74 % 1008,7 hPa 0,0 l/m 11,3 km/h (2 Bft) W-SW 247 0,000 mm 0,0 UV-I 0 W/m 12,6 C 15,2 C 14,5 km/h (3 Bft) 91,30 %
02.07.2020 02:30 17,3 C 16,1 C 73 % 1008,7 hPa 0,0 l/m 11,3 km/h (2 Bft) W-SW 247 0,000 mm 0,0 UV-I 0 W/m 12,4 C 15,2 C 14,5 km/h (3 Bft) 86,96 %
02.07.2020 02:29 17,3 C 16,1 C 74 % 1008,7 hPa 0,0 l/m 11,3 km/h (2 Bft) W-SW 247 0,000 mm 0,0 UV-I 0 W/m 12,6 C 15,2 C 14,5 km/h (3 Bft) 95,65 %
02.07.2020 02:28 17,3 C 16,1 C 74 % 1008,7 hPa 0,0 l/m 8,0 km/h (2 Bft) W-SW 247 0,000 mm 0,0 UV-I 0 W/m 12,6 C 16,5 C 12,9 km/h (3 Bft) 86,96 %
02.07.2020 02:27 17,2 C 16,1 C 74 % 1008,7 hPa 0,0 l/m 11,3 km/h (2 Bft) W-SW 247 0,000 mm 0,0 UV-I 0 W/m 12,5 C 15,1 C 14,5 km/h (3 Bft) 95,65 %
02.07.2020 02:26 17,2 C 16,1 C 75 % 1008,7 hPa 0,0 l/m 8,0 km/h (2 Bft) W-SW 247 0,000 mm 0,0 UV-I 0 W/m 12,7 C 16,4 C 11,3 km/h (2 Bft) 91,30 %
02.07.2020 02:25 17,2 C 16,1 C 75 % 1008,7 hPa 0,0 l/m 9,7 km/h (2 Bft) W-SW 247 0,000 mm 0,0 UV-I 0 W/m 12,7 C 15,7 C 11,3 km/h (2 Bft) 91,30 %
02.07.2020 02:24 17,2 C 16,1 C 75 % 1008,6 hPa 0,0 l/m 6,4 km/h (2 Bft) W-SW 247 0,000 mm 0,0 UV-I 0 W/m 12,7 C 17,2 C 11,3 km/h (2 Bft) 91,30 %
02.07.2020 02:23 17,3 C 16,1 C 75 % 1008,7 hPa 0,0 l/m 6,4 km/h (2 Bft) W-SW 247 0,000 mm 0,0 UV-I 0 W/m 12,8 C 17,3 C 9,7 km/h (2 Bft) 91,30 %
02.07.2020 02:22 17,2 C 16,1 C 75 % 1008,6 hPa 0,0 l/m 6,4 km/h (2 Bft) W-SW 247 0,000 mm 0,0 UV-I 0 W/m 12,7 C 17,2 C 9,7 km/h (2 Bft) 91,30 %
02.07.2020 02:21 17,2 C 16,1 C 75 % 1008,5 hPa 0,0 l/m 6,4 km/h (2 Bft) W-SW 247 0,000 mm 0,0 UV-I 0 W/m 12,7 C 17,2 C 9,7 km/h (2 Bft) 91,30 %
02.07.2020 02:20 17,2 C 16,1 C 75 % 1008,6 hPa 0,0 l/m 6,4 km/h (2 Bft) W-SW 247 0,000 mm 0,0 UV-I 0 W/m 12,7 C 17,2 C 9,7 km/h (2 Bft) 91,30 %
02.07.2020 02:19 17,2 C 16,1 C 75 % 1008,6 hPa 0,0 l/m 6,4 km/h (2 Bft) W-SW 247 0,000 mm 0,0 UV-I 0 W/m 12,7 C 17,2 C 9,7 km/h (2 Bft) 95,65 %
02.07.2020 02:18 17,2 C 16,1 C 75 % 1008,6 hPa 0,0 l/m 8,0 km/h (2 Bft) W-SW 247 0,000 mm 0,0 UV-I 0 W/m 12,7 C 16,4 C 11,3 km/h (2 Bft) 91,30 %
02.07.2020 02:17 17,2 C 16,1 C 75 % 1008,6 hPa 0,0 l/m 6,4 km/h (2 Bft) W-SW 247 0,000 mm 0,0 UV-I 0 W/m 12,7 C 17,2 C 9,7 km/h (2 Bft) 95,65 %
02.07.2020 02:16 17,2 C 16,1 C 76 % 1008,6 hPa 0,0 l/m 6,4 km/h (2 Bft) W-SW 247 0,000 mm 0,0 UV-I 0 W/m 12,9 C 17,2 C 9,7 km/h (2 Bft) 95,65 %
02.07.2020 02:15 17,3 C 16,1 C 76 % 1008,6 hPa 0,0 l/m 6,4 km/h (2 Bft) W-SW 247 0,000 mm 0,0 UV-I 0 W/m 13,0 C 17,3 C 9,7 km/h (2 Bft) 86,96 %
02.07.2020 02:14 17,3 C 16,1 C 76 % 1008,6 hPa 0,0 l/m 6,4 km/h (2 Bft) W-SW 247 0,000 mm 0,0 UV-I 0 W/m 13,0 C 17,3 C 6,4 km/h (2 Bft) 100,00 %
02.07.2020 02:13 17,2 C 16,1 C 76 % 1008,6 hPa 0,0 l/m 6,4 km/h (2 Bft) W-SW 247 0,000 mm 0,0 UV-I 0 W/m 12,9 C 17,2 C 11,3 km/h (2 Bft) 91,30 %
02.07.2020 02:12 17,3 C 16,1 C 76 % 1008,6 hPa 0,0 l/m 8,0 km/h (2 Bft) W-SW 247 0,000 mm 0,0 UV-I 0 W/m 13,0 C 16,5 C 11,3 km/h (2 Bft) 91,30 %
02.07.2020 02:11 17,2 C 16,1 C 76 % 1008,6 hPa 0,0 l/m 8,0 km/h (2 Bft) W-SW 247 0,000 mm 0,0 UV-I 0 W/m 12,9 C 16,4 C 9,7 km/h (2 Bft) 95,65 %
02.07.2020 02:10 17,3 C 16,1 C 76 % 1008,6 hPa 0,0 l/m 9,7 km/h (2 Bft) W-SW 247 0,000 mm 0,0 UV-I 0 W/m 13,0 C 15,8 C 12,9 km/h (3 Bft) 95,65 %
02.07.2020 02:09 17,2 C 16,1 C 77 % 1008,6 hPa 0,0 l/m 9,7 km/h (2 Bft) W-SW 247 0,000 mm 0,0 UV-I 0 W/m 13,1 C 15,7 C 11,3 km/h (2 Bft) 91,30 %
02.07.2020 02:08 17,3 C 16,1 C 76 % 1008,6 hPa 0,0 l/m 6,4 km/h (2 Bft) W-SW 247 0,000 mm 0,0 UV-I 0 W/m 13,0 C 17,3 C 9,7 km/h (2 Bft) 100,00 %
02.07.2020 02:07 17,2 C 16,1 C 76 % 1008,6 hPa 0,0 l/m 6,4 km/h (2 Bft) W-SW 247 0,000 mm 0,0 UV-I 0 W/m 12,9 C 17,2 C 9,7 km/h (2 Bft) 86,96 %
02.07.2020 02:06 17,3 C 16,1 C 76 % 1008,6 hPa 0,0 l/m 8,0 km/h (2 Bft) W-SW 247 0,000 mm 0,0 UV-I 0 W/m 13,0 C 16,5 C 11,3 km/h (2 Bft) 95,65 %
02.07.2020 02:05 17,3 C 16,1 C 77 % 1008,6 hPa 0,0 l/m 8,0 km/h (2 Bft) W-SW 247 0,000 mm 0,0 UV-I 0 W/m 13,2 C 16,5 C 11,3 km/h (2 Bft) 95,65 %
02.07.2020 02:04 17,3 C 16,1 C 77 % 1008,6 hPa 0,0 l/m 8,0 km/h (2 Bft) W-SW 247 0,000 mm 0,0 UV-I 0 W/m 13,2 C 16,5 C 11,3 km/h (2 Bft) 91,30 %
02.07.2020 02:03 17,3 C 16,1 C 77 % 1008,6 hPa 0,0 l/m 6,4 km/h (2 Bft) W-SW 247 0,000 mm 0,0 UV-I 0 W/m 13,2 C 17,3 C 9,7 km/h (2 Bft) 91,30 %
02.07.2020 02:02 17,3 C 16,1 C 77 % 1008,6 hPa 0,0 l/m 6,4 km/h (2 Bft) W-SW 247 0,000 mm 0,0 UV-I 0 W/m 13,2 C 17,3 C 9,7 km/h (2 Bft) 95,65 %
02.07.2020 02:01 17,3 C 16,1 C 77 % 1008,6 hPa 0,0 l/m 6,4 km/h (2 Bft) W 270 0,000 mm 0,0 UV-I 0 W/m 13,2 C 17,3 C 9,7 km/h (2 Bft) 95,65 %
02.07.2020 02:00 17,3 C 16,1 C 77 % 1008,6 hPa 0,0 l/m 3,2 km/h (1 Bft) W 270 0,025 mm 0,0 UV-I 0 W/m 13,2 C 17,3 C 4,8 km/h (1 Bft) 95,65 %
02.07.2020 01:59 17,3 C 16,1 C 77 % 1008,6 hPa 0,0 l/m 4,8 km/h (1 Bft) W 270 0,000 mm 0,0 UV-I 0 W/m 13,2 C 17,3 C 6,4 km/h (2 Bft) 100,00 %
02.07.2020 01:58 17,2 C 16,1 C 78 % 1008,6 hPa 0,0 l/m 4,8 km/h (1 Bft) W-SW 247 0,000 mm 0,0 UV-I 0 W/m 13,3 C 17,2 C 9,7 km/h (2 Bft) 95,65 %
02.07.2020 01:57 17,3 C 16,1 C 78 % 1008,6 hPa 0,0 l/m 6,4 km/h (2 Bft) W-SW 247 0,000 mm 0,0 UV-I 0 W/m 13,4 C 17,3 C 9,7 km/h (2 Bft) 95,65 %
02.07.2020 01:56 17,3 C 16,1 C 78 % 1008,7 hPa 0,0 l/m 6,4 km/h (2 Bft) W-SW 247 0,000 mm 0,0 UV-I 0 W/m 13,4 C 17,3 C 9,7 km/h (2 Bft) 100,00 %
02.07.2020 01:55 17,3 C 16,1 C 79 % 1008,7 hPa 0,0 l/m 6,4 km/h (2 Bft) W-SW 247 0,000 mm 0,0 UV-I 0 W/m 13,6 C 17,3 C 9,7 km/h (2 Bft) 95,65 %
02.07.2020 01:54 17,3 C 16,1 C 79 % 1008,7 hPa 0,0 l/m 4,8 km/h (1 Bft) W-SW 247 0,000 mm 0,0 UV-I 0 W/m 13,6 C 17,3 C 6,4 km/h (2 Bft) 91,30 %
02.07.2020 01:53 17,3 C 16,1 C 79 % 1008,7 hPa 0,0 l/m 4,8 km/h (1 Bft) W-SW 247 0,000 mm 0,0 UV-I 0 W/m 13,6 C 17,3 C 9,7 km/h (2 Bft) 95,65 %
02.07.2020 01:52 17,3 C 16,1 C 79 % 1008,7 hPa 0,0 l/m 4,8 km/h (1 Bft) W-SW 247 0,000 mm 0,0 UV-I 0 W/m 13,6 C 17,3 C 6,4 km/h (2 Bft) 100,00 %
02.07.2020 01:51 17,2 C 16,1 C 79 % 1008,7 hPa 0,0 l/m 4,8 km/h (1 Bft) W-SW 247 0,000 mm 0,0 UV-I 0 W/m 13,5 C 17,2 C 9,7 km/h (2 Bft) 95,65 %
02.07.2020 01:50 17,3 C 16,1 C 79 % 1008,7 hPa 0,0 l/m 4,8 km/h (1 Bft) W-SW 247 0,000 mm 0,0 UV-I 0 W/m 13,6 C 17,3 C 6,4 km/h (2 Bft) 95,65 %
02.07.2020 01:49 17,3 C 16,1 C 79 % 1008,7 hPa 0,0 l/m 4,8 km/h (1 Bft) W-SW 247 0,000 mm 0,0 UV-I 0 W/m 13,6 C 17,3 C 6,4 km/h (2 Bft) 100,00 %
02.07.2020 01:48 17,3 C 16,7 C 79 % 1008,7 hPa 0,0 l/m 3,2 km/h (1 Bft) W-SW 247 0,000 mm 0,0 UV-I 0 W/m 13,6 C 17,3 C 6,4 km/h (2 Bft) 95,65 %
02.07.2020 01:47 17,3 C 16,7 C 80 % 1008,7 hPa 0,0 l/m 4,8 km/h (1 Bft) W-SW 247 0,000 mm 0,0 UV-I 0 W/m 13,8 C 17,3 C 6,4 km/h (2 Bft) 95,65 %
02.07.2020 01:46 17,3 C 16,7 C 79 % 1008,7 hPa 0,0 l/m 3,2 km/h (1 Bft) W-SW 247 0,000 mm 0,0 UV-I 0 W/m 13,6 C 17,3 C 6,4 km/h (2 Bft) 95,65 %
02.07.2020 01:45 17,3 C 16,7 C 79 % 1008,7 hPa 0,0 l/m 3,2 km/h (1 Bft) W-SW 247 0,000 mm 0,0 UV-I 0 W/m 13,6 C 17,3 C 4,8 km/h (1 Bft) 95,65 %
02.07.2020 01:44 17,3 C 16,7 C 80 % 1008,7 hPa 0,0 l/m 4,8 km/h (1 Bft) W-SW 247 0,000 mm 0,0 UV-I 0 W/m 13,8 C 17,3 C 6,4 km/h (2 Bft) 91,30 %
02.07.2020 01:43 17,3 C 16,7 C 80 % 1008,7 hPa 0,0 l/m 4,8 km/h (1 Bft) W-SW 247 0,000 mm 0,0 UV-I 0 W/m 13,8 C 17,3 C 6,4 km/h (2 Bft) 95,65 %
02.07.2020 01:42 17,3 C 16,7 C 80 % 1008,8 hPa 0,0 l/m 4,8 km/h (1 Bft) W-SW 247 0,000 mm 0,0 UV-I 0 W/m 13,8 C 17,3 C 6,4 km/h (2 Bft) 86,96 %
02.07.2020 01:41 17,3 C 16,7 C 80 % 1008,8 hPa 0,0 l/m 3,2 km/h (1 Bft) W-SW 247 0,000 mm 0,0 UV-I 0 W/m 13,8 C 17,3 C 6,4 km/h (2 Bft) 95,65 %
02.07.2020 01:40 17,3 C 16,7 C 80 % 1008,7 hPa 0,0 l/m 4,8 km/h (1 Bft) W-SW 247 0,000 mm 0,0 UV-I 0 W/m 13,8 C 17,3 C 6,4 km/h (2 Bft) 100,00 %
02.07.2020 01:39 17,4 C 16,7 C 80 % 1008,7 hPa 0,0 l/m 3,2 km/h (1 Bft) W-SW 247 0,000 mm 0,0 UV-I 0 W/m 13,9 C 17,4 C 6,4 km/h (2 Bft) 95,65 %
02.07.2020 01:38 17,4 C 16,7 C 80 % 1008,8 hPa 0,0 l/m 6,4 km/h (2 Bft) W-SW 247 0,000 mm 0,0 UV-I 0 W/m 13,9 C 17,4 C 6,4 km/h (2 Bft) 91,30 %
02.07.2020 01:37 17,4 C 16,7 C 80 % 1008,8 hPa 0,0 l/m 8,0 km/h (2 Bft) W-SW 247 0,000 mm 0,0 UV-I 0 W/m 13,9 C 16,6 C 11,3 km/h (2 Bft) 100,00 %
02.07.2020 01:36 17,4 C 16,7 C 80 % 1008,7 hPa 0,0 l/m 4,8 km/h (1 Bft) SW 225 0,000 mm 0,0 UV-I 0 W/m 13,9 C 17,4 C 6,4 km/h (2 Bft) 95,65 %
02.07.2020 01:35 17,5 C 16,7 C 80 % 1008,7 hPa 0,0 l/m 6,4 km/h (2 Bft) SW 225 0,000 mm 0,0 UV-I 0 W/m 14,0 C 17,5 C 9,7 km/h (2 Bft) 91,30 %
02.07.2020 01:34 17,4 C 16,7 C 80 % 1008,7 hPa 0,0 l/m 4,8 km/h (1 Bft) W-SW 247 0,000 mm 0,0 UV-I 0 W/m 13,9 C 17,4 C 6,4 km/h (2 Bft) 100,00 %
02.07.2020 01:33 17,5 C 16,7 C 80 % 1008,7 hPa 0,0 l/m 4,8 km/h (1 Bft) W-SW 247 0,000 mm 0,0 UV-I 0 W/m 14,0 C 17,5 C 6,4 km/h (2 Bft) 95,65 %
02.07.2020 01:32 17,4 C 16,7 C 80 % 1008,7 hPa 0,0 l/m 4,8 km/h (1 Bft) W-SW 247 0,000 mm 0,0 UV-I 0 W/m 13,9 C 17,4 C 6,4 km/h (2 Bft) 95,65 %
02.07.2020 01:31 17,4 C 16,7 C 80 % 1008,7 hPa 0,0 l/m 6,4 km/h (2 Bft) SW 225 0,000 mm 0,0 UV-I 0 W/m 13,9 C 17,4 C 9,7 km/h (2 Bft) 100,00 %
02.07.2020 01:30 17,4 C 16,7 C 80 % 1008,7 hPa 0,0 l/m 6,4 km/h (2 Bft) W-SW 247 0,000 mm 0,0 UV-I 0 W/m 13,9 C 17,4 C 9,7 km/h (2 Bft) 95,65 %
02.07.2020 01:29 17,4 C 16,7 C 80 % 1008,7 hPa 0,0 l/m 6,4 km/h (2 Bft) W-SW 247 0,000 mm 0,0 UV-I 0 W/m 13,9 C 17,4 C 9,7 km/h (2 Bft) 95,65 %
02.07.2020 01:28 17,4 C 16,7 C 80 % 1008,7 hPa 0,0 l/m 4,8 km/h (1 Bft) W-SW 247 0,000 mm 0,0 UV-I 0 W/m 13,9 C 17,4 C 6,4 km/h (2 Bft) 100,00 %
02.07.2020 01:27 17,4 C 16,7 C 80 % 1008,7 hPa 0,0 l/m 4,8 km/h (1 Bft) W-SW 247 0,000 mm 0,0 UV-I 0 W/m 13,9 C 17,4 C 6,4 km/h (2 Bft) 91,30 %
02.07.2020 01:26 17,4 C 16,7 C 81 % 1008,7 hPa 0,0 l/m 4,8 km/h (1 Bft) W-SW 247 0,000 mm 0,0 UV-I 0 W/m 14,1 C 17,4 C 4,8 km/h (1 Bft) 95,65 %
02.07.2020 01:25 17,3 C 16,7 C 81 % 1008,6 hPa 0,0 l/m 3,2 km/h (1 Bft) W-NW 292 0,000 mm 0,0 UV-I 0 W/m 14,0 C 17,3 C 4,8 km/h (1 Bft) 95,65 %
02.07.2020 01:24 17,3 C 16,7 C 81 % 1008,7 hPa 0,0 l/m 4,8 km/h (1 Bft) W-SW 247 0,000 mm 0,0 UV-I 0 W/m 14,0 C 17,3 C 6,4 km/h (2 Bft) 91,30 %
02.07.2020 01:23 17,3 C 16,7 C 82 % 1008,6 hPa 0,0 l/m 4,8 km/h (1 Bft) W-SW 247 0,000 mm 0,0 UV-I 0 W/m 14,2 C 17,3 C 6,4 km/h (2 Bft) 95,65 %
02.07.2020 01:22 17,2 C 16,7 C 82 % 1008,6 hPa 0,0 l/m 4,8 km/h (1 Bft) W-SW 247 0,000 mm 0,0 UV-I 0 W/m 14,1 C 17,2 C 9,7 km/h (2 Bft) 100,00 %
02.07.2020 01:21 17,2 C 16,7 C 83 % 1008,6 hPa 0,0 l/m 4,8 km/h (1 Bft) W-SW 247 0,000 mm 0,0 UV-I 0 W/m 14,3 C 17,2 C 6,4 km/h (2 Bft) 95,65 %
02.07.2020 01:20 17,2 C 16,7 C 83 % 1008,6 hPa 0,0 l/m 4,8 km/h (1 Bft) SW 225 0,000 mm 0,0 UV-I 0 W/m 14,3 C 17,2 C 6,4 km/h (2 Bft) 95,65 %
02.07.2020 01:19 17,2 C 16,7 C 83 % 1008,5 hPa 0,0 l/m 4,8 km/h (1 Bft) W-SW 247 0,000 mm 0,0 UV-I 0 W/m 14,3 C 17,2 C 6,4 km/h (2 Bft) 95,65 %
02.07.2020 01:18 17,2 C 16,7 C 84 % 1008,5 hPa 0,0 l/m 4,8 km/h (1 Bft) W-SW 247 0,000 mm 0,0 UV-I 0 W/m 14,5 C 17,2 C 9,7 km/h (2 Bft) 95,65 %
02.07.2020 01:17 17,2 C 16,7 C 84 % 1008,5 hPa 0,0 l/m 4,8 km/h (1 Bft) W-SW 247 0,000 mm 0,0 UV-I 0 W/m 14,5 C 17,2 C 6,4 km/h (2 Bft) 91,30 %
02.07.2020 01:16 17,1 C 16,7 C 84 % 1008,6 hPa 0,0 l/m 4,8 km/h (1 Bft) W-SW 247 0,000 mm 0,0 UV-I 0 W/m 14,4 C 17,1 C 6,4 km/h (2 Bft) 95,65 %
02.07.2020 01:15 17,2 C 16,7 C 84 % 1008,5 hPa 0,0 l/m 4,8 km/h (1 Bft) W-SW 247 0,000 mm 0,0 UV-I 0 W/m 14,5 C 17,2 C 6,4 km/h (2 Bft) 91,30 %
02.07.2020 01:14 17,2 C 16,7 C 84 % 1008,5 hPa 0,0 l/m 4,8 km/h (1 Bft) W-SW 247 0,000 mm 0,0 UV-I 0 W/m 14,5 C 17,2 C 6,4 km/h (2 Bft) 95,65 %
02.07.2020 01:13 17,1 C 16,7 C 84 % 1008,5 hPa 0,0 l/m 4,8 km/h (1 Bft) W-SW 247 0,000 mm 0,0 UV-I 0 W/m 14,4 C 17,1 C 4,8 km/h (1 Bft) 100,00 %
02.07.2020 01:12 17,1 C 16,7 C 84 % 1008,5 hPa 0,0 l/m 4,8 km/h (1 Bft) W-SW 247 0,000 mm 0,0 UV-I 0 W/m 14,4 C 17,1 C 6,4 km/h (2 Bft) 95,65 %
02.07.2020 01:11 17,1 C 16,7 C 85 % 1008,6 hPa 0,0 l/m 4,8 km/h (1 Bft) W-SW 247 0,000 mm 0,0 UV-I 0 W/m 14,6 C 17,1 C 6,4 km/h (2 Bft) 91,30 %
02.07.2020 01:10 17,0 C 16,7 C 85 % 1008,6 hPa 0,0 l/m 4,8 km/h (1 Bft) W-SW 247 0,000 mm 0,0 UV-I 0 W/m 14,5 C 17,0 C 4,8 km/h (1 Bft) 100,00 %
02.07.2020 01:09 17,0 C 16,7 C 85 % 1008,6 hPa 0,0 l/m 3,2 km/h (1 Bft) W-SW 247 0,000 mm 0,0 UV-I 0 W/m 14,5 C 17,0 C 4,8 km/h (1 Bft) 91,30 %
02.07.2020 01:08 17,0 C 16,7 C 85 % 1008,6 hPa 0,0 l/m 4,8 km/h (1 Bft) W-SW 247 0,000 mm 0,0 UV-I 0 W/m 14,5 C 17,0 C 6,4 km/h (2 Bft) 91,30 %
02.07.2020 01:07 17,0 C 16,7 C 86 % 1008,5 hPa 0,0 l/m 3,2 km/h (1 Bft) S-SW 202 0,000 mm 0,0 UV-I 0 W/m 14,6 C 17,0 C 4,8 km/h (1 Bft) 95,65 %
02.07.2020 01:06 17,0 C 16,7 C 86 % 1008,6 hPa 0,0 l/m 3,2 km/h (1 Bft) S-SW 202 0,000 mm 0,0 UV-I 0 W/m 14,6 C 17,0 C 4,8 km/h (1 Bft) 91,30 %
02.07.2020 01:05 17,0 C 16,7 C 86 % 1008,5 hPa 0,0 l/m 1,6 km/h (1 Bft) O 90 0,000 mm 0,0 UV-I 0 W/m 14,6 C 17,0 C 3,2 km/h (1 Bft) 95,65 %
02.07.2020 01:04 16,9 C 16,7 C 86 % 1008,6 hPa 0,0 l/m 1,6 km/h (1 Bft) O 90 0,000 mm 0,0 UV-I 0 W/m 14,5 C 16,9 C 3,2 km/h (1 Bft) 91,30 %
02.07.2020 01:03 16,9 C 16,7 C 86 % 1008,5 hPa 0,0 l/m 1,6 km/h (1 Bft) O 90 0,000 mm 0,0 UV-I 0 W/m 14,5 C 16,9 C 3,2 km/h (1 Bft) 100,00 %
02.07.2020 01:02 16,9 C 16,7 C 86 % 1008,6 hPa 0,0 l/m 1,6 km/h (1 Bft) O 90 0,000 mm 0,0 UV-I 0 W/m 14,5 C 16,9 C 1,6 km/h (1 Bft) 91,30 %
02.07.2020 01:01 16,9 C 16,7 C 86 % 1008,6 hPa 0,0 l/m 1,6 km/h (1 Bft) O 90 0,000 mm 0,0 UV-I 0 W/m 14,5 C 16,9 C 3,2 km/h (1 Bft) 95,65 %
02.07.2020 01:00 16,9 C 16,7 C 86 % 1008,6 hPa 0,0 l/m 1,6 km/h (1 Bft) O 90 0,025 mm 0,0 UV-I 0 W/m 14,5 C 16,9 C 3,2 km/h (1 Bft) 91,30 %
02.07.2020 00:59 16,9 C 16,7 C 86 % 1008,6 hPa 0,0 l/m 1,6 km/h (1 Bft) O 90 0,000 mm 0,0 UV-I 0 W/m 14,5 C 16,9 C 1,6 km/h (1 Bft) 95,65 %
02.07.2020 00:58 17,0 C 16,7 C 86 % 1008,6 hPa 0,0 l/m 1,6 km/h (1 Bft) O 90 0,000 mm 0,0 UV-I 0 W/m 14,6 C 17,0 C 3,2 km/h (1 Bft) 86,96 %
02.07.2020 00:57 17,0 C 16,7 C 86 % 1008,6 hPa 0,0 l/m 1,6 km/h (1 Bft) O 90 0,000 mm 0,0 UV-I 0 W/m 14,6 C 17,0 C 3,2 km/h (1 Bft) 100,00 %
02.07.2020 00:56 17,1 C 17,2 C 85 % 1008,6 hPa 0,0 l/m 0,0 km/h (0 Bft) N 0 0,000 mm 0,0 UV-I 0 W/m 14,6 C 17,1 C 0,0 km/h (0 Bft) 91,30 %
02.07.2020 00:55 17,1 C 17,2 C 85 % 1008,6 hPa 0,0 l/m 0,0 km/h (0 Bft) N 0 0,000 mm 0,0 UV-I 0 W/m 14,6 C 17,1 C 0,0 km/h (0 Bft) 91,30 %
02.07.2020 00:54 17,1 C 17,2 C 85 % 1008,7 hPa 0,0 l/m 0,0 km/h (0 Bft) N 0 0,000 mm 0,0 UV-I 0 W/m 14,6 C 17,1 C 0,0 km/h (0 Bft) 95,65 %
02.07.2020 00:53 17,1 C 17,2 C 85 % 1008,7 hPa 0,0 l/m 0,0 km/h (0 Bft) N 0 0,000 mm 0,0 UV-I 0 W/m 14,6 C 17,1 C 0,0 km/h (0 Bft) 95,65 %
02.07.2020 00:52 17,2 C 17,2 C 85 % 1008,7 hPa 0,0 l/m 0,0 km/h (0 Bft) N 0 0,000 mm 0,0 UV-I 0 W/m 14,7 C 17,2 C 0,0 km/h (0 Bft) 82,61 %
02.07.2020 00:51 17,2 C 17,2 C 84 % 1008,6 hPa 0,0 l/m 0,0 km/h (0 Bft) N 0 0,000 mm 0,0 UV-I 0 W/m 14,5 C 17,2 C 0,0 km/h (0 Bft) 91,30 %
02.07.2020 00:50 17,3 C 17,2 C 84 % 1008,6 hPa 0,0 l/m 0,0 km/h (0 Bft) N 0 0,000 mm 0,0 UV-I 0 W/m 14,6 C 17,3 C 0,0 km/h (0 Bft) 86,96 %
02.07.2020 00:49 17,4 C 17,2 C 84 % 1008,7 hPa 0,0 l/m 0,0 km/h (0 Bft) N 0 0,000 mm 0,0 UV-I 0 W/m 14,7 C 17,4 C 0,0 km/h (0 Bft) 91,30 %
02.07.2020 00:48 17,5 C 17,2 C 84 % 1008,7 hPa 0,0 l/m 0,0 km/h (0 Bft) N 0 0,000 mm 0,0 UV-I 0 W/m 14,8 C 17,5 C 0,0 km/h (0 Bft) 100,00 %
02.07.2020 00:47 17,6 C 17,8 C 83 % 1008,7 hPa 0,0 l/m 0,0 km/h (0 Bft) N 0 0,000 mm 0,0 UV-I 0 W/m 14,7 C 17,6 C 0,0 km/h (0 Bft) 86,96 %
02.07.2020 00:46 17,7 C 17,8 C 82 % 1008,7 hPa 0,0 l/m 0,0 km/h (0 Bft) O-NO 67 0,000 mm 0,0 UV-I 0 W/m 14,6 C 17,7 C 1,6 km/h (1 Bft) 91,30 %
02.07.2020 00:45 17,8 C 17,8 C 82 % 1008,7 hPa 0,0 l/m 1,6 km/h (1 Bft) O-NO 67 0,000 mm 0,0 UV-I 0 W/m 14,7 C 17,8 C 3,2 km/h (1 Bft) 95,65 %
02.07.2020 00:44 17,9 C 17,8 C 82 % 1008,7 hPa 0,0 l/m 1,6 km/h (1 Bft) O-NO 67 0,000 mm 0,0 UV-I 0 W/m 14,8 C 17,9 C 3,2 km/h (1 Bft) 95,65 %
02.07.2020 00:43 17,9 C 17,8 C 82 % 1008,7 hPa 0,0 l/m 3,2 km/h (1 Bft) W-NW 292 0,000 mm 0,0 UV-I 0 W/m 14,8 C 17,9 C 6,4 km/h (2 Bft) 82,61 %
02.07.2020 00:42 17,9 C 17,8 C 82 % 1008,7 hPa 0,0 l/m 3,2 km/h (1 Bft) W-NW 292 0,000 mm 0,0 UV-I 0 W/m 14,8 C 17,9 C 6,4 km/h (2 Bft) 100,00 %
02.07.2020 00:41 17,9 C 17,8 C 81 % 1008,7 hPa 0,0 l/m 1,6 km/h (1 Bft) W-NW 292 0,000 mm 0,0 UV-I 0 W/m 14,6 C 17,9 C 6,4 km/h (2 Bft) 86,96 %
02.07.2020 00:40 18,0 C 17,8 C 81 % 1008,7 hPa 0,0 l/m 1,6 km/h (1 Bft) W-NW 292 0,000 mm 0,0 UV-I 0 W/m 14,7 C 18,0 C 1,6 km/h (1 Bft) 95,65 %
02.07.2020 00:39 18,1 C 17,8 C 81 % 1008,6 hPa 0,0 l/m 3,2 km/h (1 Bft) W-NW 292 0,000 mm 0,0 UV-I 0 W/m 14,8 C 18,1 C 4,8 km/h (1 Bft) 95,65 %
02.07.2020 00:38 18,1 C 17,8 C 81 % 1008,6 hPa 0,0 l/m 1,6 km/h (1 Bft) W-NW 292 0,000 mm 0,0 UV-I 0 W/m 14,8 C 18,1 C 4,8 km/h (1 Bft) 95,65 %
02.07.2020 00:37 18,1 C 17,8 C 81 % 1008,6 hPa 0,0 l/m 1,6 km/h (1 Bft) W 270 0,000 mm 0,0 UV-I 0 W/m 14,8 C 18,1 C 3,2 km/h (1 Bft) 91,30 %
02.07.2020 00:36 18,1 C 17,8 C 81 % 1008,6 hPa 0,0 l/m 1,6 km/h (1 Bft) W 270 0,000 mm 0,0 UV-I 0 W/m 14,8 C 18,1 C 3,2 km/h (1 Bft) 95,65 %
02.07.2020 00:35 18,1 C 17,8 C 81 % 1008,6 hPa 0,0 l/m 1,6 km/h (1 Bft) W 270 0,000 mm 0,0 UV-I 0 W/m 14,8 C 18,1 C 4,8 km/h (1 Bft) 91,30 %
02.07.2020 00:34 18,1 C 17,8 C 81 % 1008,6 hPa 0,0 l/m 1,6 km/h (1 Bft) W-NW 292 0,000 mm 0,0 UV-I 0 W/m 14,8 C 18,1 C 4,8 km/h (1 Bft) 91,30 %
02.07.2020 00:33 18,1 C 17,8 C 81 % 1008,6 hPa 0,0 l/m 4,8 km/h (1 Bft) W-SW 247 0,000 mm 0,0 UV-I 0 W/m 14,8 C 18,1 C 6,4 km/h (2 Bft) 95,65 %
02.07.2020 00:32 18,1 C 17,8 C 81 % 1008,6 hPa 0,0 l/m 3,2 km/h (1 Bft) W 270 0,000 mm 0,0 UV-I 0 W/m 14,8 C 18,1 C 4,8 km/h (1 Bft) 95,65 %
02.07.2020 00:31 18,2 C 17,8 C 81 % 1008,6 hPa 0,0 l/m 4,8 km/h (1 Bft) W 270 0,000 mm 0,0 UV-I 0 W/m 14,9 C 18,2 C 6,4 km/h (2 Bft) 91,30 %
02.07.2020 00:30 18,2 C 17,8 C 81 % 1008,6 hPa 0,0 l/m 3,2 km/h (1 Bft) W-SW 247 0,000 mm 0,0 UV-I 0 W/m 14,9 C 18,2 C 6,4 km/h (2 Bft) 100,00 %
02.07.2020 00:29 18,1 C 17,8 C 81 % 1008,6 hPa 0,0 l/m 4,8 km/h (1 Bft) W 270 0,000 mm 0,0 UV-I 0 W/m 14,8 C 18,1 C 6,4 km/h (2 Bft) 86,96 %
02.07.2020 00:28 18,1 C 17,8 C 81 % 1008,6 hPa 0,0 l/m 6,4 km/h (2 Bft) W-SW 247 0,000 mm 0,0 UV-I 0 W/m 14,8 C 18,1 C 11,3 km/h (2 Bft) 95,65 %
02.07.2020 00:27 18,1 C 17,8 C 81 % 1008,6 hPa 0,0 l/m 8,0 km/h (2 Bft) W-SW 247 0,000 mm 0,0 UV-I 0 W/m 14,8 C 17,4 C 14,5 km/h (3 Bft) 95,65 %
02.07.2020 00:26 18,1 C 17,8 C 81 % 1008,6 hPa 0,0 l/m 6,4 km/h (2 Bft) W-SW 247 0,000 mm 0,0 UV-I 0 W/m 14,8 C 18,1 C 11,3 km/h (2 Bft) 91,30 %
02.07.2020 00:25 18,1 C 17,8 C 81 % 1008,6 hPa 0,0 l/m 8,0 km/h (2 Bft) W-SW 247 0,000 mm 0,0 UV-I 0 W/m 14,8 C 17,4 C 11,3 km/h (2 Bft) 91,30 %
02.07.2020 00:24 18,1 C 17,8 C 81 % 1008,6 hPa 0,0 l/m 8,0 km/h (2 Bft) W-SW 247 0,000 mm 0,0 UV-I 0 W/m 14,8 C 17,4 C 12,9 km/h (3 Bft) 95,65 %
02.07.2020 00:23 18,1 C 17,8 C 81 % 1008,6 hPa 0,0 l/m 8,0 km/h (2 Bft) SW 225 0,000 mm 0,0 UV-I 0 W/m 14,8 C 17,4 C 11,3 km/h (2 Bft) 95,65 %
02.07.2020 00:22 18,1 C 17,8 C 81 % 1008,7 hPa 0,0 l/m 8,0 km/h (2 Bft) W-SW 247 0,000 mm 0,0 UV-I 0 W/m 14,8 C 17,4 C 11,3 km/h (2 Bft) 91,30 %
02.07.2020 00:21 18,1 C 17,8 C 81 % 1008,7 hPa 0,0 l/m 8,0 km/h (2 Bft) W-SW 247 0,000 mm 0,0 UV-I 0 W/m 14,8 C 17,4 C 12,9 km/h (3 Bft) 100,00 %
02.07.2020 00:20 18,1 C 17,8 C 81 % 1008,7 hPa 0,0 l/m 8,0 km/h (2 Bft) W-SW 247 0,000 mm 0,0 UV-I 0 W/m 14,8 C 17,4 C 12,9 km/h (3 Bft) 91,30 %
02.07.2020 00:19 18,1 C 17,8 C 81 % 1008,7 hPa 0,0 l/m 9,7 km/h (2 Bft) W-SW 247 0,000 mm 0,0 UV-I 0 W/m 14,8 C 16,7 C 12,9 km/h (3 Bft) 95,65 %
02.07.2020 00:18 18,1 C 17,8 C 81 % 1008,7 hPa 0,0 l/m 11,3 km/h (2 Bft) W-SW 247 0,000 mm 0,0 UV-I 0 W/m 14,8 C 16,1 C 16,1 km/h (3 Bft) 95,65 %
02.07.2020 00:17 18,2 C 17,8 C 81 % 1008,7 hPa 0,0 l/m 11,3 km/h (2 Bft) W-SW 247 0,000 mm 0,0 UV-I 0 W/m 14,9 C 16,2 C 16,1 km/h (3 Bft) 95,65 %
02.07.2020 00:16 18,2 C 17,8 C 81 % 1008,7 hPa 0,0 l/m 9,7 km/h (2 Bft) W-SW 247 0,000 mm 0,0 UV-I 0 W/m 14,9 C 16,8 C 12,9 km/h (3 Bft) 91,30 %
02.07.2020 00:15 18,2 C 17,8 C 81 % 1008,7 hPa 0,0 l/m 12,9 km/h (3 Bft) W-SW 247 0,000 mm 0,0 UV-I 0 W/m 14,9 C 15,7 C 19,3 km/h (3 Bft) 91,30 %
02.07.2020 00:14 18,2 C 17,8 C 81 % 1008,7 hPa 0,0 l/m 8,0 km/h (2 Bft) W-SW 247 0,000 mm 0,0 UV-I 0 W/m 14,9 C 17,5 C 12,9 km/h (3 Bft) 95,65 %
02.07.2020 00:13 18,2 C 17,8 C 81 % 1008,7 hPa 0,0 l/m 11,3 km/h (2 Bft) W-SW 247 0,000 mm 0,0 UV-I 0 W/m 14,9 C 16,2 C 14,5 km/h (3 Bft) 91,30 %
02.07.2020 00:12 18,2 C 17,8 C 81 % 1008,7 hPa 0,0 l/m 11,3 km/h (2 Bft) W-SW 247 0,000 mm 0,0 UV-I 0 W/m 14,9 C 16,2 C 14,5 km/h (3 Bft) 95,65 %
02.07.2020 00:11 18,2 C 17,8 C 81 % 1008,7 hPa 0,0 l/m 11,3 km/h (2 Bft) W-SW 247 0,000 mm 0,0 UV-I 0 W/m 14,9 C 16,2 C 14,5 km/h (3 Bft) 95,65 %
02.07.2020 00:10 18,3 C 17,8 C 81 % 1008,7 hPa 0,0 l/m 11,3 km/h (2 Bft) W-SW 247 0,000 mm 0,0 UV-I 0 W/m 15,0 C 16,3 C 14,5 km/h (3 Bft) 95,65 %
02.07.2020 00:09 18,3 C 17,8 C 80 % 1008,7 hPa 0,0 l/m 14,5 km/h (3 Bft) SW 225 0,000 mm 0,0 UV-I 0 W/m 14,8 C 15,3 C 19,3 km/h (3 Bft) 86,96 %
02.07.2020 00:08 18,3 C 17,8 C 80 % 1008,7 hPa 0,0 l/m 12,9 km/h (3 Bft) W-SW 247 0,000 mm 0,0 UV-I 0 W/m 14,8 C 15,8 C 20,9 km/h (4 Bft) 100,00 %
02.07.2020 00:07 18,3 C 17,8 C 80 % 1008,7 hPa 0,0 l/m 17,7 km/h (3 Bft) W-SW 247 0,000 mm 0,0 UV-I 0 W/m 14,8 C 14,5 C 24,1 km/h (4 Bft) 91,30 %
02.07.2020 00:06 18,3 C 17,8 C 80 % 1008,7 hPa 0,0 l/m 19,3 km/h (3 Bft) W-SW 247 0,000 mm 0,0 UV-I 0 W/m 14,8 C 14,2 C 22,5 km/h (4 Bft) 91,30 %
02.07.2020 00:05 18,3 C 17,8 C 80 % 1008,7 hPa 0,0 l/m 17,7 km/h (3 Bft) W-SW 247 0,000 mm 0,0 UV-I 0 W/m 14,8 C 14,5 C 24,1 km/h (4 Bft) 95,65 %
02.07.2020 00:04 18,3 C 17,8 C 80 % 1008,8 hPa 0,0 l/m 16,1 km/h (3 Bft) SW 225 0,000 mm 0,0 UV-I 0 W/m 14,8 C 14,9 C 22,5 km/h (4 Bft) 95,65 %
02.07.2020 00:03 18,3 C 17,8 C 80 % 1008,8 hPa 0,0 l/m 17,7 km/h (3 Bft) W-SW 247 0,000 mm 0,0 UV-I 0 W/m 14,8 C 14,5 C 20,9 km/h (4 Bft) 91,30 %
02.07.2020 00:02 18,3 C 17,8 C 80 % 1008,7 hPa 0,0 l/m 16,1 km/h (3 Bft) W-SW 247 0,000 mm 0,0 UV-I 0 W/m 14,8 C 14,9 C 24,1 km/h (4 Bft) 100,00 %
02.07.2020 00:01 18,2 C 17,8 C 80 % 1008,8 hPa 0,0 l/m 16,1 km/h (3 Bft) W-SW 247 0,000 mm 0,0 UV-I 0 W/m 14,7 C 14,8 C 24,1 km/h (4 Bft) 86,96 %
02.07.2020 00:00 18,3 C 17,8 C 80 % 1008,7 hPa 0,0 l/m 11,3 km/h (2 Bft) W-SW 247 0,051 mm 0,0 UV-I 0 W/m 14,8 C 16,3 C 22,5 km/h (4 Bft) 95,65 %
_ Min-Zeit 05:26 03:56 02:30 01:03 - 00:46 - - - - - 02:30 03:17 00:47 00:43
Minimum _ 15,2 C 15,0 C 73 % 1008,5 hPa - 0,0 km/h (0 Bft) - - - - - 12,4 C 13,2 C 0,0 km/h (0 Bft) 82,61 %
_ Max-Zeit 08:38 08:38 00:57 08:14 00:00 00:06 - - 08:00 08:36 08:38 08:38 08:28 00:01 00:02
Maximum _ 19,9 C 21,7 C 86 % 1011,4 hPa 0,0 l/m 19,3 km/h
W-SW (3 Bft)
- - 0,076 mm 2,1 UV-I 489 W/m 15,9 C 19,6 C 24,1 km/h
W-SW (4 Bft)
100,00 %
Durchschnitt _ 17,2 C 16,4 C 81 % 1009,4 hPa #0,0 l/m 7,9 km/h (2 Bft) W-SW - #0,354 mm 1,2 UV-I 97 W/m 13,8 C 16,2 C 11,7 km/h (2 Bft) 94,44 %